Time,TemperatureF,DewpointF,PressureIn,WindDirection,WindDirectionDegrees,WindSpeedMPH,WindSpeedGustMPH,Humidity,HourlyPrecipIn,Conditions,Clouds,dailyrainin,SoftwareType,DateUTC
2013-03-15 00:00:00,55.2,46.0,30.29,NE,45,2.0,3.0,71,0.00,,,0.00,meteohub,2013-03-15 04:00:00,
2013-03-15 00:01:00,55.0,45.9,30.29,North,0,2.0,3.0,71,0.00,,,0.00,meteohub,2013-03-15 04:01:00,
2013-03-15 00:02:00,55.0,45.9,30.30,NE,45,3.0,3.0,71,0.00,,,0.00,meteohub,2013-03-15 04:02:00,
2013-03-15 00:04:00,55.0,46.2,30.30,NE,45,2.0,3.0,72,0.00,,,0.00,meteohub,2013-03-15 04:04:00,
2013-03-15 00:06:00,55.0,46.2,30.30,NE,45,2.0,3.0,72,0.00,,,0.00,meteohub,2013-03-15 04:06:00,
2013-03-15 00:08:00,54.9,46.0,30.30,NW,315,2.0,3.0,72,0.00,,,0.00,meteohub,2013-03-15 04:08:00,
2013-03-15 00:12:00,54.9,46.0,30.30,North,0,1.0,3.0,72,0.00,,,0.00,meteohub,2013-03-15 04:12:00,
2013-03-15 00:13:00,54.7,45.9,30.30,North,0,1.0,3.0,72,0.00,,,0.00,meteohub,2013-03-15 04:13:00,
2013-03-15 00:14:00,54.7,45.9,30.30,North,0,1.0,3.0,72,0.00,,,0.00,meteohub,2013-03-15 04:14:00,
2013-03-15 00:16:00,54.5,45.7,30.29,North,0,1.0,3.0,72,0.00,,,0.00,meteohub,2013-03-15 04:16:00,
2013-03-15 00:17:00,54.5,45.7,30.30,North,0,2.0,3.0,72,0.00,,,0.00,meteohub,2013-03-15 04:17:00,
2013-03-15 00:19:00,54.3,45.5,30.30,North,0,2.0,3.0,72,0.00,,,0.00,meteohub,2013-03-15 04:19:00,
2013-03-15 00:22:00,54.1,45.7,30.30,North,0,2.0,2.0,73,0.00,,,0.00,meteohub,2013-03-15 04:22:00,
2013-03-15 00:24:00,54.0,45.5,30.30,NE,45,2.0,2.0,73,0.00,,,0.00,meteohub,2013-03-15 04:24:00,
2013-03-15 00:25:00,54.0,45.5,30.30,North,0,2.0,2.0,73,0.00,,,0.00,meteohub,2013-03-15 04:25:00,
2013-03-15 00:27:00,54.0,45.9,30.30,North,0,2.0,2.0,74,0.00,,,0.00,meteohub,2013-03-15 04:27:00,
2013-03-15 00:30:00,53.8,45.7,30.30,North,0,2.0,2.0,74,0.00,,,0.00,meteohub,2013-03-15 04:30:00,
2013-03-15 00:31:00,53.8,46.0,30.30,North,0,2.0,2.0,75,0.00,,,0.00,meteohub,2013-03-15 04:31:00,
2013-03-15 00:32:00,53.8,46.0,30.30,North,0,2.0,2.0,75,0.00,,,0.00,meteohub,2013-03-15 04:32:00,
2013-03-15 00:37:00,53.8,46.4,30.29,North,0,2.0,2.0,76,0.00,,,0.00,meteohub,2013-03-15 04:37:00,
2013-03-15 00:38:00,53.8,46.4,30.29,North,0,3.0,3.0,76,0.00,,,0.00,meteohub,2013-03-15 04:38:00,
2013-03-15 00:39:00,53.8,46.4,30.29,North,0,2.0,2.0,76,0.00,,,0.00,meteohub,2013-03-15 04:39:00,
2013-03-15 00:42:00,54.0,46.6,30.29,North,0,2.0,3.0,76,0.00,,,0.00,meteohub,2013-03-15 04:42:00,
2013-03-15 00:43:00,54.0,46.6,30.29,North,0,2.0,3.0,76,0.00,,,0.00,meteohub,2013-03-15 04:43:00,
2013-03-15 00:44:00,54.0,46.6,30.29,North,0,2.0,3.0,76,0.00,,,0.00,meteohub,2013-03-15 04:44:00,
2013-03-15 00:47:00,54.0,46.6,30.29,North,0,4.0,4.0,76,0.00,,,0.00,meteohub,2013-03-15 04:47:00,
2013-03-15 00:49:00,54.1,46.8,30.29,NE,45,2.0,3.0,76,0.00,,,0.00,meteohub,2013-03-15 04:49:00,
2013-03-15 00:52:00,54.1,46.8,30.30,NE,45,2.0,4.0,76,0.00,,,0.00,meteohub,2013-03-15 04:52:00,
2013-03-15 00:54:00,54.1,46.8,30.29,NE,45,2.0,4.0,76,0.00,,,0.00,meteohub,2013-03-15 04:54:00,
2013-03-15 00:57:00,54.0,46.6,30.30,North,0,1.0,4.0,76,0.00,,,0.00,meteohub,2013-03-15 04:57:00,
2013-03-15 00:58:00,54.0,46.6,30.30,North,0,2.0,4.0,76,0.00,,,0.00,meteohub,2013-03-15 04:58:00,
2013-03-15 01:03:00,53.8,46.0,30.29,NE,45,2.0,4.0,75,0.00,,,0.00,meteohub,2013-03-15 05:03:00,
2013-03-15 01:04:00,53.8,46.0,30.30,NE,45,2.0,4.0,75,0.00,,,0.00,meteohub,2013-03-15 05:04:00,
2013-03-15 01:07:00,53.6,46.2,30.29,North,0,2.0,2.0,76,0.00,,,0.00,meteohub,2013-03-15 05:07:00,
2013-03-15 01:08:00,53.6,46.2,30.29,North,0,2.0,2.0,76,0.00,,,0.00,meteohub,2013-03-15 05:08:00,
2013-03-15 01:09:00,53.6,46.2,30.29,NE,45,2.0,2.0,76,0.00,,,0.00,meteohub,2013-03-15 05:09:00,
2013-03-15 01:10:00,53.6,46.2,30.29,NE,45,2.0,2.0,76,0.00,,,0.00,meteohub,2013-03-15 05:10:00,
2013-03-15 01:12:00,53.6,46.2,30.29,North,0,2.0,3.0,76,0.00,,,0.00,meteohub,2013-03-15 05:12:00,
2013-03-15 01:15:00,53.4,46.4,30.29,NE,45,2.0,3.0,77,0.00,,,0.00,meteohub,2013-03-15 05:15:00,
2013-03-15 01:16:00,53.4,46.4,30.29,North,0,2.0,3.0,77,0.00,,,0.00,meteohub,2013-03-15 05:16:00,
2013-03-15 01:17:00,53.4,46.4,30.29,North,0,2.0,3.0,77,0.00,,,0.00,meteohub,2013-03-15 05:17:00,
2013-03-15 01:21:00,53.4,46.4,30.28,North,0,2.0,3.0,77,0.00,,,0.00,meteohub,2013-03-15 05:21:00,
2013-03-15 01:22:00,53.4,46.4,30.28,North,0,3.0,3.0,77,0.00,,,0.00,meteohub,2013-03-15 05:22:00,
2013-03-15 01:23:00,53.4,46.4,30.28,NE,45,2.0,3.0,77,0.00,,,0.00,meteohub,2013-03-15 05:23:00,
2013-03-15 01:27:00,53.4,46.8,30.29,North,0,2.0,3.0,78,0.00,,,0.00,meteohub,2013-03-15 05:27:00,
2013-03-15 01:28:00,53.4,46.8,30.29,North,0,2.0,3.0,78,0.00,,,0.00,meteohub,2013-03-15 05:28:00,
2013-03-15 01:29:00,53.4,46.8,30.29,North,0,2.0,3.0,78,0.00,,,0.00,meteohub,2013-03-15 05:29:00,
2013-03-15 01:32:00,53.6,46.6,30.29,WNW,293,3.0,3.0,77,0.00,,,0.00,meteohub,2013-03-15 05:32:00,
2013-03-15 01:34:00,53.6,46.6,30.29,North,0,2.0,3.0,77,0.00,,,0.00,meteohub,2013-03-15 05:34:00,
2013-03-15 01:35:00,53.6,46.6,30.29,North,0,2.0,3.0,77,0.00,,,0.00,meteohub,2013-03-15 05:35:00,
2013-03-15 01:40:00,53.8,46.8,30.28,NE,45,2.0,3.0,77,0.00,,,0.00,meteohub,2013-03-15 05:40:00,
2013-03-15 01:41:00,53.8,46.8,30.28,North,0,2.0,3.0,77,0.00,,,0.00,meteohub,2013-03-15 05:41:00,
2013-03-15 01:42:00,53.8,46.8,30.29,North,0,3.0,3.0,77,0.00,,,0.00,meteohub,2013-03-15 05:42:00,
2013-03-15 01:45:00,53.8,46.4,30.28,North,0,2.0,4.0,76,0.00,,,0.00,meteohub,2013-03-15 05:45:00,
2013-03-15 01:47:00,53.8,46.4,30.28,North,0,2.0,4.0,76,0.00,,,0.00,meteohub,2013-03-15 05:47:00,
2013-03-15 01:52:00,53.8,46.4,30.28,North,0,2.0,4.0,76,0.00,,,0.00,meteohub,2013-03-15 05:52:00,
2013-03-15 01:54:00,53.8,46.4,30.28,North,0,2.0,4.0,76,0.00,,,0.00,meteohub,2013-03-15 05:54:00,
2013-03-15 01:58:00,53.6,46.6,30.29,NE,45,2.0,4.0,77,0.00,,,0.00,meteohub,2013-03-15 05:58:00,
2013-03-15 01:59:00,53.6,46.6,30.29,East,90,2.0,4.0,77,0.00,,,0.00,meteohub,2013-03-15 05:59:00,
2013-03-15 02:00:00,53.6,46.6,30.29,North,0,1.0,4.0,77,0.00,,,0.00,meteohub,2013-03-15 06:00:00,
2013-03-15 02:05:00,53.2,46.6,30.29,North,0,2.0,4.0,78,0.00,,,0.00,meteohub,2013-03-15 06:05:00,
2013-03-15 02:07:00,53.2,46.6,30.29,North,0,2.0,4.0,78,0.00,,,0.00,meteohub,2013-03-15 06:07:00,
2013-03-15 02:08:00,53.2,46.6,30.28,NE,45,2.0,4.0,78,0.00,,,0.00,meteohub,2013-03-15 06:08:00,
2013-03-15 02:10:00,53.2,46.6,30.29,NE,45,2.0,4.0,78,0.00,,,0.00,meteohub,2013-03-15 06:10:00,
2013-03-15 02:12:00,53.1,46.0,30.29,North,0,2.0,4.0,77,0.00,,,0.00,meteohub,2013-03-15 06:12:00,
2013-03-15 02:13:00,53.1,46.0,30.29,North,0,2.0,4.0,77,0.00,,,0.00,meteohub,2013-03-15 06:13:00,
2013-03-15 02:16:00,53.1,46.0,30.29,North,0,2.0,4.0,77,0.00,,,0.00,meteohub,2013-03-15 06:16:00,
2013-03-15 02:17:00,52.9,45.9,30.29,NE,45,2.0,4.0,77,0.00,,,0.00,meteohub,2013-03-15 06:17:00,
2013-03-15 02:19:00,52.9,45.9,30.29,North,0,2.0,4.0,77,0.00,,,0.00,meteohub,2013-03-15 06:19:00,
2013-03-15 02:20:00,52.9,45.9,30.28,NE,45,2.0,3.0,77,0.00,,,0.00,meteohub,2013-03-15 06:20:00,
2013-03-15 02:22:00,52.9,45.9,30.29,NE,45,2.0,3.0,77,0.00,,,0.00,meteohub,2013-03-15 06:22:00,
2013-03-15 02:26:00,52.7,45.3,30.29,North,0,2.0,3.0,76,0.00,,,0.00,meteohub,2013-03-15 06:26:00,
2013-03-15 02:27:00,52.7,45.3,30.29,North,0,2.0,3.0,76,0.00,,,0.00,meteohub,2013-03-15 06:27:00,
2013-03-15 02:28:00,52.7,45.3,30.29,North,0,2.0,3.0,76,0.00,,,0.00,meteohub,2013-03-15 06:28:00,
2013-03-15 02:30:00,52.5,45.1,30.29,North,0,2.0,3.0,76,0.00,,,0.00,meteohub,2013-03-15 06:30:00,
2013-03-15 02:31:00,52.5,45.1,30.29,North,0,2.0,2.0,76,0.00,,,0.00,meteohub,2013-03-15 06:31:00,
2013-03-15 02:34:00,52.3,45.0,30.29,North,0,2.0,2.0,76,0.00,,,0.00,meteohub,2013-03-15 06:34:00,
2013-03-15 02:35:00,52.3,45.0,30.29,North,0,1.0,2.0,76,0.00,,,0.00,meteohub,2013-03-15 06:35:00,
2013-03-15 02:37:00,52.2,44.8,30.29,North,0,1.0,2.0,76,0.00,,,0.00,meteohub,2013-03-15 06:37:00,
2013-03-15 02:39:00,52.2,44.8,30.29,NE,45,2.0,2.0,76,0.00,,,0.00,meteohub,2013-03-15 06:39:00,
2013-03-15 02:40:00,52.2,45.1,30.29,North,0,1.0,2.0,77,0.00,,,0.00,meteohub,2013-03-15 06:40:00,
2013-03-15 02:43:00,52.0,45.0,30.29,NE,45,1.0,2.0,77,0.00,,,0.00,meteohub,2013-03-15 06:43:00,
2013-03-15 02:44:00,52.0,45.0,30.29,NE,45,1.0,2.0,77,0.00,,,0.00,meteohub,2013-03-15 06:44:00,
2013-03-15 02:47:00,51.8,44.8,30.29,NE,45,2.0,2.0,77,0.00,,,0.00,meteohub,2013-03-15 06:47:00,
2013-03-15 02:50:00,51.6,45.0,30.29,North,0,2.0,2.0,78,0.00,,,0.00,meteohub,2013-03-15 06:50:00,
2013-03-15 02:51:00,51.6,45.3,30.29,North,0,0.0,2.0,79,0.00,,,0.00,meteohub,2013-03-15 06:51:00,
2013-03-15 02:55:00,51.6,45.3,30.28,East,90,2.0,2.0,79,0.00,,,0.00,meteohub,2013-03-15 06:55:00,
2013-03-15 02:57:00,51.4,45.1,30.28,North,0,2.0,2.0,79,0.00,,,0.00,meteohub,2013-03-15 06:57:00,
2013-03-15 02:58:00,51.4,45.1,30.28,North,0,2.0,2.0,79,0.00,,,0.00,meteohub,2013-03-15 06:58:00,
2013-03-15 03:01:00,51.6,45.3,30.28,North,0,2.0,2.0,79,0.00,,,0.00,meteohub,2013-03-15 07:01:00,
2013-03-15 03:02:00,51.4,45.1,30.29,South,180,2.0,2.0,79,0.00,,,0.00,meteohub,2013-03-15 07:02:00,
2013-03-15 03:03:00,51.4,45.1,30.28,North,0,2.0,2.0,79,0.00,,,0.00,meteohub,2013-03-15 07:03:00,
2013-03-15 03:06:00,51.4,45.1,30.28,NE,45,2.0,2.0,79,0.00,,,0.00,meteohub,2013-03-15 07:06:00,
2013-03-15 03:07:00,51.4,45.1,30.28,NE,45,2.0,2.0,79,0.00,,,0.00,meteohub,2013-03-15 07:07:00,
2013-03-15 03:09:00,51.4,45.1,30.28,NE,45,1.0,2.0,79,0.00,,,0.00,meteohub,2013-03-15 07:09:00,
2013-03-15 03:12:00,51.3,45.0,30.28,North,0,2.0,2.0,79,0.00,,,0.00,meteohub,2013-03-15 07:12:00,
2013-03-15 03:13:00,51.3,45.0,30.28,NE,45,1.0,2.0,79,0.00,,,0.00,meteohub,2013-03-15 07:13:00,
2013-03-15 03:17:00,51.1,45.1,30.28,North,0,2.0,2.0,80,0.00,,,0.00,meteohub,2013-03-15 07:17:00,
2013-03-15 03:18:00,51.1,45.1,30.27,NE,45,2.0,2.0,80,0.00,,,0.00,meteohub,2013-03-15 07:18:00,
2013-03-15 03:20:00,51.1,44.8,30.28,North,0,2.0,2.0,79,0.00,,,0.00,meteohub,2013-03-15 07:20:00,
2013-03-15 03:22:00,50.9,44.6,30.28,NW,315,2.0,2.0,79,0.00,,,0.00,meteohub,2013-03-15 07:22:00,
2013-03-15 03:25:00,50.9,43.9,30.28,NE,45,2.0,2.0,77,0.00,,,0.00,meteohub,2013-03-15 07:25:00,
2013-03-15 03:26:00,50.9,43.9,30.28,NW,315,2.0,2.0,77,0.00,,,0.00,meteohub,2013-03-15 07:26:00,
2013-03-15 03:27:00,50.9,43.9,30.28,NE,45,2.0,2.0,77,0.00,,,0.00,meteohub,2013-03-15 07:27:00,
2013-03-15 03:28:00,50.9,43.9,30.28,NE,45,2.0,2.0,77,0.00,,,0.00,meteohub,2013-03-15 07:28:00,
2013-03-15 03:30:00,50.7,43.5,30.28,NE,45,2.0,2.0,76,0.00,,,0.00,meteohub,2013-03-15 07:30:00,
2013-03-15 03:32:00,50.7,43.2,30.28,North,0,2.0,2.0,75,0.00,,,0.00,meteohub,2013-03-15 07:32:00,
2013-03-15 03:34:00,50.7,43.2,30.28,North,0,2.0,2.0,75,0.00,,,0.00,meteohub,2013-03-15 07:34:00,
2013-03-15 03:37:00,50.5,42.6,30.28,North,0,2.0,2.0,74,0.00,,,0.00,meteohub,2013-03-15 07:37:00,
2013-03-15 03:40:00,50.5,42.3,30.28,NE,45,2.0,2.0,73,0.00,,,0.00,meteohub,2013-03-15 07:40:00,
2013-03-15 03:41:00,50.5,42.3,30.28,NE,45,2.0,2.0,73,0.00,,,0.00,meteohub,2013-03-15 07:41:00,
2013-03-15 03:42:00,50.5,42.3,30.28,North,0,2.0,2.0,73,0.00,,,0.00,meteohub,2013-03-15 07:42:00,
2013-03-15 03:43:00,50.4,42.1,30.28,NE,45,1.0,2.0,73,0.00,,,0.00,meteohub,2013-03-15 07:43:00,
2013-03-15 03:47:00,50.4,42.1,30.28,NE,45,2.0,2.0,73,0.00,,,0.00,meteohub,2013-03-15 07:47:00,
2013-03-15 03:48:00,50.2,41.9,30.28,North,0,1.0,2.0,73,0.00,,,0.00,meteohub,2013-03-15 07:48:00,
2013-03-15 03:49:00,50.2,41.9,30.28,North,0,2.0,2.0,73,0.00,,,0.00,meteohub,2013-03-15 07:49:00,
2013-03-15 03:52:00,50.2,41.9,30.28,NE,45,1.0,2.0,73,0.00,,,0.00,meteohub,2013-03-15 07:52:00,
2013-03-15 03:54:00,50.2,41.9,30.27,North,0,2.0,2.0,73,0.00,,,0.00,meteohub,2013-03-15 07:54:00,
2013-03-15 03:57:00,50.0,41.7,30.28,North,0,1.0,2.0,73,0.00,,,0.00,meteohub,2013-03-15 07:57:00,
2013-03-15 03:58:00,50.0,41.7,30.27,North,0,2.0,2.0,73,0.00,,,0.00,meteohub,2013-03-15 07:58:00,
2013-03-15 03:59:00,50.0,41.7,30.28,North,0,2.0,2.0,73,0.00,,,0.00,meteohub,2013-03-15 07:59:00,
2013-03-15 04:02:00,49.8,41.9,30.28,NNE,23,2.0,2.0,74,0.00,,,0.00,meteohub,2013-03-15 08:02:00,
2013-03-15 04:04:00,49.8,41.9,30.28,North,0,2.0,2.0,74,0.00,,,0.00,meteohub,2013-03-15 08:04:00,
2013-03-15 04:05:00,49.6,41.7,30.28,North,0,2.0,2.0,74,0.00,,,0.00,meteohub,2013-03-15 08:05:00,
2013-03-15 04:08:00,49.6,42.1,30.28,NE,45,2.0,2.0,75,0.00,,,0.00,meteohub,2013-03-15 08:08:00,
2013-03-15 04:09:00,49.5,41.9,30.28,North,0,2.0,2.0,75,0.00,,,0.00,meteohub,2013-03-15 08:09:00,
2013-03-15 04:10:00,49.5,41.9,30.28,NE,45,2.0,2.0,75,0.00,,,0.00,meteohub,2013-03-15 08:10:00,
2013-03-15 04:13:00,49.3,41.7,30.28,North,0,2.0,2.0,75,0.00,,,0.00,meteohub,2013-03-15 08:13:00,
2013-03-15 04:14:00,49.3,42.1,30.28,North,0,2.0,2.0,76,0.00,,,0.00,meteohub,2013-03-15 08:14:00,
2013-03-15 04:15:00,49.3,42.1,30.28,North,0,2.0,2.0,76,0.00,,,0.00,meteohub,2013-03-15 08:15:00,
2013-03-15 04:18:00,48.9,41.7,30.28,North,0,1.0,2.0,76,0.00,,,0.00,meteohub,2013-03-15 08:18:00,
2013-03-15 04:20:00,48.9,41.7,30.27,North,0,1.0,2.0,76,0.00,,,0.00,meteohub,2013-03-15 08:20:00,
2013-03-15 04:21:00,48.7,41.9,30.27,NE,45,1.0,2.0,77,0.00,,,0.00,meteohub,2013-03-15 08:21:00,
2013-03-15 04:25:00,48.6,41.7,30.28,NE,45,2.0,2.0,77,0.00,,,0.00,meteohub,2013-03-15 08:25:00,
2013-03-15 04:26:00,48.6,41.7,30.28,North,0,2.0,2.0,77,0.00,,,0.00,meteohub,2013-03-15 08:26:00,
2013-03-15 04:27:00,48.6,42.1,30.27,North,0,2.0,2.0,78,0.00,,,0.00,meteohub,2013-03-15 08:27:00,
2013-03-15 04:32:00,48.4,41.9,30.28,NE,45,1.0,2.0,78,0.00,,,0.00,meteohub,2013-03-15 08:32:00,
2013-03-15 04:35:00,48.2,42.1,30.27,North,0,1.0,2.0,79,0.00,,,0.00,meteohub,2013-03-15 08:35:00,
2013-03-15 04:37:00,48.2,42.1,30.27,North,0,2.0,2.0,79,0.00,,,0.00,meteohub,2013-03-15 08:37:00,
2013-03-15 04:38:00,48.2,42.1,30.27,North,0,1.0,2.0,79,0.00,,,0.00,meteohub,2013-03-15 08:38:00,
2013-03-15 04:39:00,48.0,42.1,30.27,North,0,1.0,2.0,80,0.00,,,0.00,meteohub,2013-03-15 08:39:00,
2013-03-15 04:40:00,48.0,42.1,30.27,North,0,1.0,2.0,80,0.00,,,0.00,meteohub,2013-03-15 08:40:00,
2013-03-15 04:44:00,47.8,41.9,30.27,North,0,0.0,2.0,80,0.00,,,0.00,meteohub,2013-03-15 08:44:00,
2013-03-15 04:45:00,47.8,41.9,30.27,North,0,0.0,2.0,80,0.00,,,0.00,meteohub,2013-03-15 08:45:00,
2013-03-15 04:48:00,47.7,41.7,30.27,North,0,0.0,2.0,80,0.00,,,0.00,meteohub,2013-03-15 08:48:00,
2013-03-15 04:50:00,47.5,41.9,30.27,North,0,0.0,2.0,81,0.00,,,0.00,meteohub,2013-03-15 08:50:00,
2013-03-15 04:51:00,47.5,41.9,30.27,North,0,0.0,2.0,81,0.00,,,0.00,meteohub,2013-03-15 08:51:00,
2013-03-15 04:52:00,47.5,41.9,30.27,North,0,0.0,2.0,81,0.00,,,0.00,meteohub,2013-03-15 08:52:00,
2013-03-15 04:56:00,47.1,41.5,30.27,North,0,0.0,1.0,81,0.00,,,0.00,meteohub,2013-03-15 08:56:00,
2013-03-15 04:57:00,47.1,41.5,30.28,North,0,0.0,1.0,81,0.00,,,0.00,meteohub,2013-03-15 08:57:00,
2013-03-15 04:58:00,46.9,41.4,30.27,North,0,0.0,1.0,81,0.00,,,0.00,meteohub,2013-03-15 08:58:00,
2013-03-15 05:03:00,46.8,41.2,30.28,North,0,0.0,1.0,81,0.00,,,0.00,meteohub,2013-03-15 09:03:00,
2013-03-15 05:04:00,46.6,41.0,30.28,North,0,0.0,1.0,81,0.00,,,0.00,meteohub,2013-03-15 09:04:00,
2013-03-15 05:09:00,46.4,41.2,30.27,North,0,0.0,0.0,82,0.00,,,0.00,meteohub,2013-03-15 09:09:00,
2013-03-15 05:10:00,46.4,41.2,30.27,North,0,0.0,0.0,82,0.00,,,0.00,meteohub,2013-03-15 09:10:00,
2013-03-15 05:12:00,46.2,41.0,30.28,North,0,0.0,0.0,82,0.00,,,0.00,meteohub,2013-03-15 09:12:00,
2013-03-15 05:15:00,46.0,41.2,30.27,North,0,0.0,0.0,83,0.00,,,0.00,meteohub,2013-03-15 09:15:00,
2013-03-15 05:16:00,45.9,41.0,30.27,North,0,0.0,0.0,83,0.00,,,0.00,meteohub,2013-03-15 09:16:00,
2013-03-15 05:17:00,45.9,41.0,30.28,North,0,1.0,0.0,83,0.00,,,0.00,meteohub,2013-03-15 09:17:00,
2013-03-15 05:21:00,45.7,40.8,30.27,North,0,0.0,1.0,83,0.00,,,0.00,meteohub,2013-03-15 09:21:00,
2013-03-15 05:22:00,45.7,40.8,30.28,North,0,0.0,1.0,83,0.00,,,0.00,meteohub,2013-03-15 09:22:00,
2013-03-15 05:23:00,45.5,40.6,30.28,North,0,0.0,1.0,83,0.00,,,0.00,meteohub,2013-03-15 09:23:00,
2013-03-15 05:25:00,45.5,40.6,30.28,North,0,1.0,1.0,83,0.00,,,0.00,meteohub,2013-03-15 09:25:00,
2013-03-15 05:27:00,45.5,40.6,30.28,North,0,1.0,1.0,83,0.00,,,0.00,meteohub,2013-03-15 09:27:00,
2013-03-15 05:28:00,45.5,41.0,30.28,North,0,1.0,1.0,84,0.00,,,0.00,meteohub,2013-03-15 09:28:00,
2013-03-15 05:30:00,45.3,40.8,30.28,North,0,0.0,1.0,84,0.00,,,0.00,meteohub,2013-03-15 09:30:00,
2013-03-15 05:31:00,45.1,40.6,30.28,North,0,0.0,1.0,84,0.00,,,0.00,meteohub,2013-03-15 09:31:00,
2013-03-15 05:33:00,45.1,40.6,30.28,North,0,0.0,1.0,84,0.00,,,0.00,meteohub,2013-03-15 09:33:00,
2013-03-15 05:35:00,45.0,40.5,30.28,North,0,0.0,1.0,84,0.00,,,0.00,meteohub,2013-03-15 09:35:00,
2013-03-15 05:39:00,45.0,40.6,30.28,North,0,0.0,1.0,85,0.00,,,0.00,meteohub,2013-03-15 09:39:00,
2013-03-15 05:40:00,44.8,40.5,30.28,North,0,0.0,1.0,85,0.00,,,0.00,meteohub,2013-03-15 09:40:00,
2013-03-15 05:41:00,44.8,40.5,30.29,North,0,0.0,1.0,85,0.00,,,0.00,meteohub,2013-03-15 09:41:00,
2013-03-15 05:43:00,44.8,40.5,30.29,North,0,0.0,1.0,85,0.00,,,0.00,meteohub,2013-03-15 09:43:00,
2013-03-15 05:46:00,44.8,40.5,30.29,North,0,1.0,0.0,85,0.00,,,0.00,meteohub,2013-03-15 09:46:00,
2013-03-15 05:47:00,44.6,40.5,30.29,North,0,1.0,0.0,85,0.00,,,0.00,meteohub,2013-03-15 09:47:00,
2013-03-15 05:51:00,44.6,40.6,30.30,North,0,1.0,1.0,86,0.00,,,0.00,meteohub,2013-03-15 09:51:00,
2013-03-15 05:52:00,44.6,40.6,30.30,North,0,1.0,1.0,86,0.00,,,0.00,meteohub,2013-03-15 09:52:00,
2013-03-15 05:55:00,44.4,40.8,30.30,North,0,1.0,1.0,87,0.00,,,0.00,meteohub,2013-03-15 09:55:00,
2013-03-15 05:56:00,44.4,40.8,30.30,North,0,0.0,1.0,87,0.00,,,0.00,meteohub,2013-03-15 09:56:00,
2013-03-15 05:58:00,44.4,40.8,30.30,North,0,0.0,1.0,87,0.00,,,0.00,meteohub,2013-03-15 09:58:00,
2013-03-15 06:00:00,44.2,41.0,30.30,North,0,0.0,1.0,88,0.00,,,0.00,meteohub,2013-03-15 10:00:00,
2013-03-15 06:02:00,44.2,41.0,30.30,North,0,1.0,1.0,88,0.00,,,0.00,meteohub,2013-03-15 10:02:00,
2013-03-15 06:03:00,44.2,41.0,30.30,North,0,0.0,1.0,88,0.00,,,0.00,meteohub,2013-03-15 10:03:00,
2013-03-15 06:04:00,44.2,41.0,30.30,North,0,0.0,1.0,88,0.00,,,0.00,meteohub,2013-03-15 10:04:00,
2013-03-15 06:08:00,44.2,41.0,30.30,North,0,0.0,1.0,88,0.00,,,0.00,meteohub,2013-03-15 10:08:00,
2013-03-15 06:09:00,44.2,41.0,30.30,North,0,0.0,1.0,88,0.00,,,0.00,meteohub,2013-03-15 10:09:00,
2013-03-15 06:11:00,44.2,41.2,30.30,North,0,0.0,1.0,89,0.00,,,0.00,meteohub,2013-03-15 10:11:00,
2013-03-15 06:14:00,44.1,41.0,30.30,North,0,0.0,1.0,89,0.00,,,0.00,meteohub,2013-03-15 10:14:00,
2013-03-15 06:15:00,44.1,41.0,30.30,North,0,0.0,1.0,89,0.00,,,0.00,meteohub,2013-03-15 10:15:00,
2013-03-15 06:17:00,44.1,41.0,30.30,North,0,0.0,1.0,89,0.00,,,0.00,meteohub,2013-03-15 10:17:00,
2013-03-15 06:18:00,44.1,41.0,30.30,North,0,0.0,1.0,89,0.00,,,0.00,meteohub,2013-03-15 10:18:00,
2013-03-15 06:20:00,44.1,41.0,30.30,North,0,0.0,0.0,89,0.00,,,0.00,meteohub,2013-03-15 10:20:00,
2013-03-15 06:22:00,44.1,41.0,30.30,North,0,0.0,0.0,89,0.00,,,0.00,meteohub,2013-03-15 10:22:00,
2013-03-15 06:24:00,44.1,41.4,30.30,North,0,0.0,0.0,90,0.00,,,0.00,meteohub,2013-03-15 10:24:00,
2013-03-15 06:25:00,44.1,41.4,30.30,North,0,0.0,0.0,90,0.00,,,0.00,meteohub,2013-03-15 10:25:00,
2013-03-15 06:27:00,44.1,41.4,30.30,North,0,0.0,0.0,90,0.00,,,0.00,meteohub,2013-03-15 10:27:00,
2013-03-15 06:30:00,43.9,41.2,30.30,North,0,0.0,0.0,90,0.00,,,0.00,meteohub,2013-03-15 10:30:00,
2013-03-15 06:32:00,43.9,41.2,30.30,North,0,0.0,0.0,90,0.00,,,0.00,meteohub,2013-03-15 10:32:00,
2013-03-15 06:33:00,44.1,41.4,30.30,North,0,0.0,0.0,90,0.00,,,0.00,meteohub,2013-03-15 10:33:00,
2013-03-15 06:35:00,44.1,41.5,30.30,North,0,0.0,0.0,91,0.00,,,0.00,meteohub,2013-03-15 10:35:00,
2013-03-15 06:37:00,43.9,41.4,30.30,North,0,0.0,0.0,91,0.00,,,0.00,meteohub,2013-03-15 10:37:00,
2013-03-15 06:38:00,43.9,41.4,30.30,North,0,0.0,0.0,91,0.00,,,0.00,meteohub,2013-03-15 10:38:00,
2013-03-15 06:41:00,43.9,41.4,30.30,North,0,0.0,0.0,91,0.00,,,0.00,meteohub,2013-03-15 10:41:00,
2013-03-15 06:43:00,43.9,41.4,30.30,North,0,0.0,0.0,91,0.00,,,0.00,meteohub,2013-03-15 10:43:00,
2013-03-15 06:44:00,43.9,41.4,30.30,North,0,0.0,0.0,91,0.00,,,0.00,meteohub,2013-03-15 10:44:00,
2013-03-15 06:45:00,43.9,41.4,30.30,North,0,0.0,0.0,91,0.00,,,0.00,meteohub,2013-03-15 10:45:00,
2013-03-15 06:47:00,43.9,41.4,30.30,North,0,0.0,0.0,91,0.00,,,0.00,meteohub,2013-03-15 10:47:00,
2013-03-15 06:49:00,44.1,41.9,30.30,North,0,0.0,0.0,92,0.00,,,0.00,meteohub,2013-03-15 10:49:00,
2013-03-15 06:51:00,44.1,41.9,30.30,North,0,0.0,0.0,92,0.00,,,0.00,meteohub,2013-03-15 10:51:00,
2013-03-15 06:52:00,44.1,41.9,30.30,North,0,0.0,0.0,92,0.00,,,0.00,meteohub,2013-03-15 10:52:00,
2013-03-15 06:54:00,44.1,41.9,30.30,North,0,0.0,0.0,92,0.00,,,0.00,meteohub,2013-03-15 10:54:00,
2013-03-15 06:56:00,44.1,41.9,30.30,North,0,0.0,0.0,92,0.00,,,0.00,meteohub,2013-03-15 10:56:00,
2013-03-15 06:57:00,44.1,41.9,30.30,North,0,0.0,0.0,92,0.00,,,0.00,meteohub,2013-03-15 10:57:00,
2013-03-15 07:00:00,43.9,41.7,30.30,North,0,0.0,0.0,92,0.00,,,0.00,meteohub,2013-03-15 11:00:00,
2013-03-15 07:02:00,43.9,41.7,30.30,North,0,0.0,0.0,92,0.00,,,0.00,meteohub,2013-03-15 11:02:00,
2013-03-15 07:03:00,43.9,41.7,30.30,North,0,0.0,0.0,92,0.00,,,0.00,meteohub,2013-03-15 11:03:00,
2013-03-15 07:07:00,43.9,41.7,30.30,North,0,0.0,0.0,92,0.00,,,0.00,meteohub,2013-03-15 11:07:00,
2013-03-15 07:08:00,43.9,41.7,30.30,North,0,0.0,0.0,92,0.00,,,0.00,meteohub,2013-03-15 11:08:00,
2013-03-15 07:09:00,43.7,41.5,30.30,North,0,0.0,0.0,92,0.00,,,0.00,meteohub,2013-03-15 11:09:00,
2013-03-15 07:12:00,43.7,41.5,30.30,North,0,0.0,0.0,92,0.00,,,0.00,meteohub,2013-03-15 11:12:00,
2013-03-15 07:13:00,43.7,41.5,30.30,North,0,0.0,0.0,92,0.00,,,0.00,meteohub,2013-03-15 11:13:00,
2013-03-15 07:14:00,43.7,41.5,30.30,North,0,0.0,0.0,92,0.00,,,0.00,meteohub,2013-03-15 11:14:00,
2013-03-15 07:15:00,43.7,41.5,30.30,North,0,0.0,0.0,92,0.00,,,0.00,meteohub,2013-03-15 11:15:00,
2013-03-15 07:18:00,43.7,41.7,30.30,North,0,0.0,0.0,93,0.00,,,0.00,meteohub,2013-03-15 11:18:00,
2013-03-15 07:19:00,43.7,41.7,30.30,North,0,0.0,0.0,93,0.00,,,0.00,meteohub,2013-03-15 11:19:00,
2013-03-15 07:22:00,43.7,41.7,30.30,North,0,0.0,0.0,93,0.00,,,0.00,meteohub,2013-03-15 11:22:00,
2013-03-15 07:23:00,43.7,41.7,30.30,North,0,0.0,0.0,93,0.00,,,0.00,meteohub,2013-03-15 11:23:00,
2013-03-15 07:26:00,43.7,41.7,30.30,North,0,0.0,0.0,93,0.00,,,0.00,meteohub,2013-03-15 11:26:00,
2013-03-15 07:27:00,43.7,41.7,30.30,North,0,0.0,0.0,93,0.00,,,0.00,meteohub,2013-03-15 11:27:00,
2013-03-15 07:30:00,43.7,41.7,30.30,North,0,0.0,0.0,93,0.00,,,0.00,meteohub,2013-03-15 11:30:00,
2013-03-15 07:32:00,43.7,41.7,30.30,North,0,0.0,0.0,93,0.00,,,0.00,meteohub,2013-03-15 11:32:00,
2013-03-15 07:34:00,43.7,41.7,30.30,North,0,0.0,0.0,93,0.00,,,0.00,meteohub,2013-03-15 11:34:00,
2013-03-15 07:38:00,43.9,41.9,30.30,North,0,0.0,0.0,93,0.00,,,0.00,meteohub,2013-03-15 11:38:00,
2013-03-15 07:40:00,43.9,41.9,30.30,North,0,0.0,0.0,93,0.00,,,0.00,meteohub,2013-03-15 11:40:00,
2013-03-15 07:42:00,43.9,42.3,30.30,North,0,0.0,0.0,94,0.00,,,0.00,meteohub,2013-03-15 11:42:00,
2013-03-15 07:44:00,43.9,42.3,30.30,North,0,0.0,0.0,94,0.00,,,0.00,meteohub,2013-03-15 11:44:00,
2013-03-15 07:47:00,43.9,42.3,30.30,North,0,0.0,0.0,94,0.00,,,0.00,meteohub,2013-03-15 11:47:00,
2013-03-15 07:49:00,43.9,42.3,30.30,North,0,0.0,0.0,94,0.00,,,0.00,meteohub,2013-03-15 11:49:00,
2013-03-15 07:52:00,43.9,42.3,30.30,North,0,0.0,0.0,94,0.00,,,0.00,meteohub,2013-03-15 11:52:00,
2013-03-15 07:53:00,43.9,42.3,30.30,North,0,0.0,0.0,94,0.00,,,0.00,meteohub,2013-03-15 11:53:00,
2013-03-15 07:54:00,43.9,42.3,30.30,North,0,0.0,0.0,94,0.00,,,0.00,meteohub,2013-03-15 11:54:00,
2013-03-15 07:58:00,43.7,42.1,30.31,North,0,0.0,0.0,94,0.00,,,0.00,meteohub,2013-03-15 11:58:00,
2013-03-15 07:59:00,43.7,42.1,30.31,North,0,0.0,0.0,94,0.00,,,0.00,meteohub,2013-03-15 11:59:00,
2013-03-15 08:04:00,43.9,42.3,30.30,North,0,0.0,0.0,94,0.00,,,0.00,meteohub,2013-03-15 12:04:00,
2013-03-15 08:06:00,44.1,42.4,30.31,North,0,1.0,1.0,94,0.00,,,0.00,meteohub,2013-03-15 12:06:00,
2013-03-15 08:07:00,44.1,42.4,30.31,North,0,0.0,1.0,94,0.00,,,0.00,meteohub,2013-03-15 12:07:00,
2013-03-15 08:08:00,44.1,42.8,30.31,North,0,0.0,1.0,95,0.00,,,0.00,meteohub,2013-03-15 12:08:00,
2013-03-15 08:10:00,44.2,43.0,30.31,North,0,0.0,1.0,95,0.00,,,0.00,meteohub,2013-03-15 12:10:00,
2013-03-15 08:13:00,44.4,43.2,30.32,North,0,0.0,1.0,95,0.00,,,0.00,meteohub,2013-03-15 12:13:00,
2013-03-15 08:14:00,44.4,43.2,30.32,North,0,0.0,1.0,95,0.00,,,0.00,meteohub,2013-03-15 12:14:00,
2013-03-15 08:17:00,44.6,43.0,30.32,North,0,0.0,1.0,94,0.00,,,0.00,meteohub,2013-03-15 12:17:00,
2013-03-15 08:19:00,44.8,43.2,30.32,North,0,0.0,1.0,94,0.00,,,0.00,meteohub,2013-03-15 12:19:00,
2013-03-15 08:20:00,44.8,43.2,30.32,North,0,0.0,1.0,94,0.00,,,0.00,meteohub,2013-03-15 12:20:00,
2013-03-15 08:22:00,45.0,43.3,30.32,North,0,0.0,1.0,94,0.00,,,0.00,meteohub,2013-03-15 12:22:00,
2013-03-15 08:25:00,45.1,43.9,30.32,North,0,0.0,1.0,95,0.00,,,0.00,meteohub,2013-03-15 12:25:00,
2013-03-15 08:26:00,45.1,43.9,30.32,North,0,0.0,0.0,95,0.00,,,0.00,meteohub,2013-03-15 12:26:00,
2013-03-15 08:27:00,45.3,44.1,30.32,NE,45,1.0,0.0,95,0.00,,,0.00,meteohub,2013-03-15 12:27:00,
2013-03-15 08:31:00,45.7,44.4,30.33,NE,45,1.0,1.0,95,0.00,,,0.00,meteohub,2013-03-15 12:31:00,
2013-03-15 08:33:00,45.9,44.4,30.33,NE,45,0.0,1.0,95,0.00,,,0.00,meteohub,2013-03-15 12:33:00,
2013-03-15 08:34:00,46.0,44.6,30.33,NE,45,0.0,1.0,95,0.00,,,0.00,meteohub,2013-03-15 12:34:00,
2013-03-15 08:37:00,46.4,45.0,30.32,NE,45,0.0,1.0,95,0.00,,,0.00,meteohub,2013-03-15 12:37:00,
2013-03-15 08:38:00,46.8,45.7,30.33,NE,45,0.0,1.0,96,0.00,,,0.00,meteohub,2013-03-15 12:38:00,
2013-03-15 08:39:00,46.9,45.9,30.33,NE,45,1.0,1.0,96,0.00,,,0.00,meteohub,2013-03-15 12:39:00,
2013-03-15 08:41:00,47.3,46.2,30.33,NE,45,0.0,1.0,96,0.00,,,0.00,meteohub,2013-03-15 12:41:00,
2013-03-15 08:44:00,47.8,46.8,30.33,NE,45,1.0,1.0,96,0.00,,,0.00,meteohub,2013-03-15 12:44:00,
2013-03-15 08:45:00,48.4,46.9,30.33,NE,45,0.0,1.0,95,0.00,,,0.00,meteohub,2013-03-15 12:45:00,
2013-03-15 08:46:00,48.6,47.1,30.34,NE,45,0.0,1.0,95,0.00,,,0.00,meteohub,2013-03-15 12:46:00,
2013-03-15 08:49:00,49.5,48.4,30.33,East,90,0.0,1.0,96,0.00,,,0.00,meteohub,2013-03-15 12:49:00,
2013-03-15 08:52:00,50.2,48.7,30.34,East,90,1.0,1.0,95,0.00,,,0.00,meteohub,2013-03-15 12:52:00,
2013-03-15 08:55:00,51.1,49.6,30.33,NE,45,1.0,1.0,95,0.00,,,0.00,meteohub,2013-03-15 12:55:00,
2013-03-15 08:57:00,51.4,50.0,30.33,NE,45,1.0,1.0,95,0.00,,,0.00,meteohub,2013-03-15 12:57:00,
2013-03-15 09:01:00,52.5,50.9,30.33,North,0,2.0,2.0,94,0.00,,,0.00,meteohub,2013-03-15 13:01:00,
2013-03-15 09:02:00,52.7,50.7,30.33,North,0,1.0,1.0,93,0.00,,,0.00,meteohub,2013-03-15 13:02:00,
2013-03-15 09:06:00,53.4,50.9,30.33,NE,45,1.0,2.0,91,0.00,,,0.00,meteohub,2013-03-15 13:06:00,
2013-03-15 09:07:00,53.6,50.2,30.34,North,0,2.0,2.0,88,0.00,,,0.00,meteohub,2013-03-15 13:07:00,
2013-03-15 09:08:00,53.8,50.0,30.34,East,90,2.0,2.0,87,0.00,,,0.00,meteohub,2013-03-15 13:08:00,
2013-03-15 09:12:00,54.3,49.6,30.34,North,0,2.0,2.0,84,0.00,,,0.00,meteohub,2013-03-15 13:12:00,
2013-03-15 09:13:00,54.5,49.5,30.33,East,90,3.0,3.0,83,0.00,,,0.00,meteohub,2013-03-15 13:13:00,
2013-03-15 09:14:00,54.9,49.5,30.33,East,90,2.0,2.0,82,0.00,,,0.00,meteohub,2013-03-15 13:14:00,
2013-03-15 09:18:00,55.4,48.9,30.33,NE,45,3.0,3.0,79,0.00,,,0.00,meteohub,2013-03-15 13:18:00,
2013-03-15 09:20:00,55.6,48.9,30.33,East,90,2.0,3.0,78,0.00,,,0.00,meteohub,2013-03-15 13:20:00,
2013-03-15 09:21:00,55.8,48.7,30.33,North,0,2.0,3.0,77,0.00,,,0.00,meteohub,2013-03-15 13:21:00,
2013-03-15 09:22:00,55.9,48.6,30.34,East,90,2.0,3.0,76,0.00,,,0.00,meteohub,2013-03-15 13:22:00,
2013-03-15 09:26:00,56.5,48.7,30.33,West,270,2.0,3.0,75,0.00,,,0.00,meteohub,2013-03-15 13:26:00,
2013-03-15 09:27:00,56.7,48.7,30.34,East,90,2.0,3.0,75,0.00,,,0.00,meteohub,2013-03-15 13:27:00,
2013-03-15 09:29:00,56.8,48.9,30.33,North,0,2.0,3.0,75,0.00,,,0.00,meteohub,2013-03-15 13:29:00,
2013-03-15 09:32:00,57.2,48.6,30.33,SE,135,1.0,3.0,73,0.00,,,0.00,meteohub,2013-03-15 13:32:00,
2013-03-15 09:33:00,57.4,48.7,30.33,East,90,2.0,3.0,73,0.00,,,0.00,meteohub,2013-03-15 13:33:00,
2013-03-15 09:35:00,57.7,48.7,30.33,NE,45,4.0,4.0,72,0.00,,,0.00,meteohub,2013-03-15 13:35:00,
2013-03-15 09:37:00,57.9,48.2,30.33,NE,45,2.0,4.0,70,0.00,,,0.00,meteohub,2013-03-15 13:37:00,
2013-03-15 09:40:00,58.3,47.8,30.34,NE,45,2.0,4.0,68,0.00,,,0.00,meteohub,2013-03-15 13:40:00,
2013-03-15 09:41:00,58.3,47.8,30.34,East,90,2.0,4.0,68,0.00,,,0.00,meteohub,2013-03-15 13:41:00,
2013-03-15 09:42:00,58.3,47.3,30.33,NE,45,2.0,4.0,67,0.00,,,0.00,meteohub,2013-03-15 13:42:00,
2013-03-15 09:47:00,58.8,47.1,30.34,East,90,2.0,4.0,65,0.00,,,0.00,meteohub,2013-03-15 13:47:00,
2013-03-15 09:48:00,59.0,46.8,30.34,East,90,3.0,4.0,64,0.00,,,0.00,meteohub,2013-03-15 13:48:00,
2013-03-15 09:52:00,59.5,46.0,30.34,East,90,2.0,3.0,61,0.00,,,0.00,meteohub,2013-03-15 13:52:00,
2013-03-15 09:53:00,59.5,46.0,30.33,North,0,2.0,3.0,61,0.00,,,0.00,meteohub,2013-03-15 13:53:00,
2013-03-15 09:55:00,59.5,46.0,30.33,South,180,3.0,3.0,61,0.00,,,0.00,meteohub,2013-03-15 13:55:00,
2013-03-15 09:56:00,59.7,46.2,30.33,SE,135,4.0,4.0,61,0.00,,,0.00,meteohub,2013-03-15 13:56:00,
2013-03-15 09:58:00,59.9,46.0,30.34,East,90,3.0,4.0,60,0.00,,,0.00,meteohub,2013-03-15 13:58:00,
2013-03-15 10:00:00,60.1,45.3,30.34,NE,45,2.0,4.0,58,0.00,,,0.00,meteohub,2013-03-15 14:00:00,
2013-03-15 10:01:00,60.3,45.5,30.34,East,90,2.0,4.0,58,0.00,,,0.00,meteohub,2013-03-15 14:01:00,
2013-03-15 10:03:00,60.4,45.7,30.34,East,90,3.0,4.0,58,0.00,,,0.00,meteohub,2013-03-15 14:03:00,
2013-03-15 10:05:00,60.4,45.7,30.34,NE,45,2.0,4.0,58,0.00,,,0.00,meteohub,2013-03-15 14:05:00,
2013-03-15 10:06:00,60.6,45.3,30.34,East,90,2.0,4.0,57,0.00,,,0.00,meteohub,2013-03-15 14:06:00,
2013-03-15 10:07:00,60.6,45.3,30.34,North,0,2.0,4.0,57,0.00,,,0.00,meteohub,2013-03-15 14:07:00,
2013-03-15 10:09:00,60.8,44.6,30.33,NW,315,2.0,4.0,55,0.00,,,0.00,meteohub,2013-03-15 14:09:00,
2013-03-15 10:10:00,61.0,44.2,30.34,NE,45,2.0,4.0,54,0.00,,,0.00,meteohub,2013-03-15 14:10:00,
2013-03-15 10:11:00,61.0,43.7,30.34,NE,45,2.0,4.0,53,0.00,,,0.00,meteohub,2013-03-15 14:11:00,
2013-03-15 10:14:00,61.3,44.6,30.33,East,90,2.0,4.0,54,0.00,,,0.00,meteohub,2013-03-15 14:14:00,
2013-03-15 10:15:00,61.5,44.8,30.33,North,0,2.0,3.0,54,0.00,,,0.00,meteohub,2013-03-15 14:15:00,
2013-03-15 10:16:00,61.5,44.8,30.33,North,0,3.0,3.0,54,0.00,,,0.00,meteohub,2013-03-15 14:16:00,
2013-03-15 10:17:00,61.5,44.8,30.33,North,0,3.0,3.0,54,0.00,,,0.00,meteohub,2013-03-15 14:17:00,
2013-03-15 10:20:00,61.7,41.2,30.33,East,90,3.0,3.0,47,0.00,,,0.00,meteohub,2013-03-15 14:20:00,
2013-03-15 10:21:00,61.9,40.3,30.33,NE,45,3.0,3.0,45,0.00,,,0.00,meteohub,2013-03-15 14:21:00,
2013-03-15 10:23:00,61.9,39.2,30.33,South,180,2.0,3.0,43,0.00,,,0.00,meteohub,2013-03-15 14:23:00,
2013-03-15 10:26:00,62.2,39.4,30.34,East,90,3.0,4.0,43,0.00,,,0.00,meteohub,2013-03-15 14:26:00,
2013-03-15 10:29:00,62.6,35.2,30.34,North,0,4.0,4.0,36,0.00,,,0.00,meteohub,2013-03-15 14:29:00,
2013-03-15 10:30:00,62.6,33.1,30.34,North,0,2.0,6.0,33,0.00,,,0.00,meteohub,2013-03-15 14:30:00,
2013-03-15 10:32:00,62.6,33.1,30.33,North,0,2.0,6.0,33,0.00,,,0.00,meteohub,2013-03-15 14:32:00,
2013-03-15 10:34:00,63.0,34.2,30.33,NW,315,2.0,6.0,34,0.00,,,0.00,meteohub,2013-03-15 14:34:00,
2013-03-15 10:37:00,63.1,32.0,30.34,NE,45,2.0,6.0,31,0.00,,,0.00,meteohub,2013-03-15 14:37:00,
2013-03-15 10:38:00,63.1,32.0,30.34,North,0,4.0,6.0,31,0.00,,,0.00,meteohub,2013-03-15 14:38:00,
2013-03-15 10:39:00,63.1,29.5,30.34,East,90,3.0,6.0,28,0.00,,,0.00,meteohub,2013-03-15 14:39:00,
2013-03-15 10:42:00,63.1,31.3,30.34,North,0,3.0,6.0,30,0.00,,,0.00,meteohub,2013-03-15 14:42:00,
2013-03-15 10:45:00,63.5,29.8,30.34,North,0,3.0,6.0,28,0.00,,,0.00,meteohub,2013-03-15 14:45:00,
2013-03-15 10:47:00,63.5,29.8,30.33,NW,315,3.0,4.0,28,0.00,,,0.00,meteohub,2013-03-15 14:47:00,
2013-03-15 10:51:00,63.5,30.7,30.33,East,90,2.0,4.0,29,0.00,,,0.00,meteohub,2013-03-15 14:51:00,
2013-03-15 10:52:00,63.5,30.7,30.33,East,90,4.0,4.0,29,0.00,,,0.00,meteohub,2013-03-15 14:52:00,
2013-03-15 10:53:00,63.9,30.9,30.33,East,90,2.0,4.0,29,0.00,,,0.00,meteohub,2013-03-15 14:53:00,
2013-03-15 10:57:00,64.0,28.4,30.33,NE,45,4.0,4.0,26,0.00,,,0.00,meteohub,2013-03-15 14:57:00,
2013-03-15 10:58:00,64.2,27.7,30.33,North,0,4.0,4.0,25,0.00,,,0.00,meteohub,2013-03-15 14:58:00,
2013-03-15 11:00:00,64.2,27.7,30.33,NE,45,4.0,4.0,25,0.00,,,0.00,meteohub,2013-03-15 15:00:00,
2013-03-15 11:03:00,64.2,25.7,30.33,North,0,4.0,4.0,23,0.00,,,0.00,meteohub,2013-03-15 15:03:00,
2013-03-15 11:04:00,64.2,25.7,30.33,North,0,4.0,4.0,23,0.00,,,0.00,meteohub,2013-03-15 15:04:00,
2013-03-15 11:05:00,64.2,24.6,30.33,SE,135,3.0,4.0,22,0.00,,,0.00,meteohub,2013-03-15 15:05:00,
2013-03-15 11:08:00,64.2,24.6,30.33,North,0,2.0,5.0,22,0.00,,,0.00,meteohub,2013-03-15 15:08:00,
2013-03-15 11:10:00,64.2,24.6,30.33,NE,45,4.0,5.0,22,0.00,,,0.00,meteohub,2013-03-15 15:10:00,
2013-03-15 11:14:00,64.2,24.6,30.33,East,90,3.0,5.0,22,0.00,,,0.00,meteohub,2013-03-15 15:14:00,
2013-03-15 11:16:00,64.2,24.6,30.33,East,90,3.0,5.0,22,0.00,,,0.00,meteohub,2013-03-15 15:16:00,
2013-03-15 11:17:00,64.4,26.8,30.33,East,90,5.0,5.0,24,0.00,,,0.00,meteohub,2013-03-15 15:17:00,
2013-03-15 11:20:00,64.6,28.0,30.33,NE,45,3.0,5.0,25,0.00,,,0.00,meteohub,2013-03-15 15:20:00,
2013-03-15 11:22:00,64.8,28.0,30.33,East,90,3.0,5.0,25,0.00,,,0.00,meteohub,2013-03-15 15:22:00,
2013-03-15 11:25:00,64.9,28.2,30.32,North,0,4.0,5.0,25,0.00,,,0.00,meteohub,2013-03-15 15:25:00,
2013-03-15 11:26:00,64.9,28.2,30.33,NE,45,3.0,6.0,25,0.00,,,0.00,meteohub,2013-03-15 15:26:00,
2013-03-15 11:28:00,64.9,29.3,30.32,NW,315,5.0,6.0,26,0.00,,,0.00,meteohub,2013-03-15 15:28:00,
2013-03-15 11:29:00,64.9,29.3,30.33,NW,315,2.0,6.0,26,0.00,,,0.00,meteohub,2013-03-15 15:29:00,
2013-03-15 11:30:00,65.1,30.4,30.32,SE,135,3.0,6.0,27,0.00,,,0.00,meteohub,2013-03-15 15:30:00,
2013-03-15 11:31:00,65.1,30.4,30.32,West,270,4.0,6.0,27,0.00,,,0.00,meteohub,2013-03-15 15:31:00,
2013-03-15 11:34:00,65.5,29.7,30.32,North,0,4.0,6.0,26,0.00,,,0.00,meteohub,2013-03-15 15:34:00,
2013-03-15 11:36:00,65.5,29.7,30.32,NE,45,4.0,6.0,26,0.00,,,0.00,meteohub,2013-03-15 15:36:00,
2013-03-15 11:37:00,65.3,29.5,30.32,North,0,4.0,6.0,26,0.00,,,0.00,meteohub,2013-03-15 15:37:00,
2013-03-15 11:39:00,65.3,29.5,30.33,NE,45,2.0,6.0,26,0.00,,,0.00,meteohub,2013-03-15 15:39:00,
2013-03-15 11:41:00,65.3,28.6,30.33,North,0,4.0,6.0,25,0.00,,,0.00,meteohub,2013-03-15 15:41:00,
2013-03-15 11:42:00,65.3,29.5,30.33,NE,45,3.0,6.0,26,0.00,,,0.00,meteohub,2013-03-15 15:42:00,
2013-03-15 11:44:00,65.3,29.5,30.33,SE,135,3.0,6.0,26,0.00,,,0.00,meteohub,2013-03-15 15:44:00,
2013-03-15 11:45:00,65.3,29.5,30.33,East,90,4.0,6.0,26,0.00,,,0.00,meteohub,2013-03-15 15:45:00,
2013-03-15 11:47:00,65.3,31.3,30.33,SE,135,3.0,6.0,28,0.00,,,0.00,meteohub,2013-03-15 15:47:00,
2013-03-15 11:48:00,65.5,30.6,30.33,NE,45,4.0,6.0,27,0.00,,,0.00,meteohub,2013-03-15 15:48:00,
2013-03-15 11:49:00,65.5,29.7,30.33,NE,45,5.0,6.0,26,0.00,,,0.00,meteohub,2013-03-15 15:49:00,
2013-03-15 11:52:00,65.5,29.7,30.33,North,0,4.0,5.0,26,0.00,,,0.00,meteohub,2013-03-15 15:52:00,
2013-03-15 11:54:00,65.5,30.6,30.33,NE,45,4.0,5.0,27,0.00,,,0.00,meteohub,2013-03-15 15:54:00,
2013-03-15 11:57:00,65.5,31.5,30.33,North,0,3.0,5.0,28,0.00,,,0.00,meteohub,2013-03-15 15:57:00,
2013-03-15 11:58:00,65.7,31.6,30.33,NE,45,5.0,5.0,28,0.00,,,0.00,meteohub,2013-03-15 15:58:00,
2013-03-15 12:02:00,65.8,31.8,30.32,NE,45,3.0,5.0,28,0.00,,,0.00,meteohub,2013-03-15 16:02:00,
2013-03-15 12:03:00,66.0,32.0,30.33,North,0,3.0,5.0,28,0.00,,,0.00,meteohub,2013-03-15 16:03:00,
2013-03-15 12:04:00,66.0,32.0,30.33,East,90,3.0,5.0,28,0.00,,,0.00,meteohub,2013-03-15 16:04:00,
2013-03-15 12:06:00,66.2,31.3,30.33,East,90,6.0,6.0,27,0.00,,,0.00,meteohub,2013-03-15 16:06:00,
2013-03-15 12:07:00,66.2,30.4,30.33,NE,45,3.0,5.0,26,0.00,,,0.00,meteohub,2013-03-15 16:07:00,
2013-03-15 12:08:00,66.2,30.4,30.33,NE,45,3.0,5.0,26,0.00,,,0.00,meteohub,2013-03-15 16:08:00,
2013-03-15 12:10:00,66.2,31.3,30.33,NE,45,4.0,8.0,27,0.00,,,0.00,meteohub,2013-03-15 16:10:00,
2013-03-15 12:12:00,66.4,31.5,30.33,North,0,2.0,8.0,27,0.00,,,0.00,meteohub,2013-03-15 16:12:00,
2013-03-15 12:14:00,66.9,32.7,30.33,North,0,5.0,8.0,28,0.00,,,0.00,meteohub,2013-03-15 16:14:00,
2013-03-15 12:15:00,66.9,32.7,30.33,North,0,2.0,8.0,28,0.00,,,0.00,meteohub,2013-03-15 16:15:00,
2013-03-15 12:17:00,67.3,33.1,30.33,South,180,2.0,8.0,28,0.00,,,0.00,meteohub,2013-03-15 16:17:00,
2013-03-15 12:21:00,67.5,32.4,30.33,East,90,4.0,8.0,27,0.00,,,0.00,meteohub,2013-03-15 16:21:00,
2013-03-15 12:22:00,67.5,32.4,30.33,NE,45,4.0,8.0,27,0.00,,,0.00,meteohub,2013-03-15 16:22:00,
2013-03-15 12:23:00,67.5,31.5,30.33,NE,45,2.0,8.0,26,0.00,,,0.00,meteohub,2013-03-15 16:23:00,
2013-03-15 12:24:00,67.6,31.5,30.33,NE,45,2.0,8.0,26,0.00,,,0.00,meteohub,2013-03-15 16:24:00,
2013-03-15 12:27:00,67.5,31.5,30.33,North,0,4.0,5.0,26,0.00,,,0.00,meteohub,2013-03-15 16:27:00,
2013-03-15 12:29:00,67.6,31.5,30.32,NE,45,4.0,5.0,26,0.00,,,0.00,meteohub,2013-03-15 16:29:00,
2013-03-15 12:33:00,67.6,31.5,30.32,West,270,6.0,6.0,26,0.00,,,0.00,meteohub,2013-03-15 16:33:00,
2013-03-15 12:34:00,67.6,30.6,30.32,North,0,5.0,5.0,25,0.00,,,0.00,meteohub,2013-03-15 16:34:00,
2013-03-15 12:39:00,67.3,30.2,30.32,East,90,2.0,6.0,25,0.00,,,0.00,meteohub,2013-03-15 16:39:00,
2013-03-15 12:41:00,67.5,29.5,30.32,SE,135,2.0,6.0,24,0.00,,,0.00,meteohub,2013-03-15 16:41:00,
2013-03-15 12:42:00,67.6,29.5,30.32,East,90,3.0,6.0,24,0.00,,,0.00,meteohub,2013-03-15 16:42:00,
2013-03-15 12:45:00,67.6,29.5,30.32,North,0,4.0,6.0,24,0.00,,,0.00,meteohub,2013-03-15 16:45:00,
2013-03-15 12:47:00,67.8,30.7,30.32,East,90,3.0,6.0,25,0.00,,,0.00,meteohub,2013-03-15 16:47:00,
2013-03-15 12:50:00,68.2,30.0,30.32,North,0,2.0,4.0,24,0.00,,,0.00,meteohub,2013-03-15 16:50:00,
2013-03-15 12:52:00,68.4,30.2,30.32,NE,45,3.0,4.0,24,0.00,,,0.00,meteohub,2013-03-15 16:52:00,
2013-03-15 12:54:00,68.9,30.6,30.32,NE,45,3.0,4.0,24,0.00,,,0.00,meteohub,2013-03-15 16:54:00,
2013-03-15 12:55:00,68.9,29.7,30.32,SE,135,1.0,6.0,23,0.00,,,0.00,meteohub,2013-03-15 16:55:00,
2013-03-15 12:56:00,68.9,29.7,30.32,SE,135,1.0,6.0,23,0.00,,,0.00,meteohub,2013-03-15 16:56:00,
2013-03-15 12:57:00,68.9,29.7,30.32,NE,45,2.0,6.0,23,0.00,,,0.00,meteohub,2013-03-15 16:57:00,
2013-03-15 13:00:00,68.9,27.3,30.32,NE,45,3.0,6.0,21,0.00,,,0.00,meteohub,2013-03-15 17:00:00,
2013-03-15 13:01:00,68.7,28.4,30.31,SE,135,3.0,6.0,22,0.00,,,0.00,meteohub,2013-03-15 17:01:00,
2013-03-15 13:04:00,68.7,29.5,30.31,East,90,4.0,6.0,23,0.00,,,0.00,meteohub,2013-03-15 17:04:00,
2013-03-15 13:06:00,68.9,28.4,30.31,East,90,6.0,6.0,22,0.00,,,0.00,meteohub,2013-03-15 17:06:00,
2013-03-15 13:08:00,68.9,28.4,30.31,NE,45,2.0,4.0,22,0.00,,,0.00,meteohub,2013-03-15 17:08:00,
2013-03-15 13:09:00,68.9,29.7,30.31,NE,45,3.0,4.0,23,0.00,,,0.00,meteohub,2013-03-15 17:09:00,
2013-03-15 13:11:00,69.1,29.7,30.31,East,90,5.0,6.0,23,0.00,,,0.00,meteohub,2013-03-15 17:11:00,
2013-03-15 13:12:00,69.1,28.6,30.31,South,180,3.0,6.0,22,0.00,,,0.00,meteohub,2013-03-15 17:12:00,
2013-03-15 13:14:00,69.4,30.0,30.30,East,90,3.0,6.0,23,0.00,,,0.00,meteohub,2013-03-15 17:14:00,
2013-03-15 13:16:00,69.4,28.9,30.30,NE,45,3.0,6.0,22,0.00,,,0.00,meteohub,2013-03-15 17:16:00,
2013-03-15 13:17:00,69.4,30.0,30.30,East,90,2.0,6.0,23,0.00,,,0.00,meteohub,2013-03-15 17:17:00,
2013-03-15 13:18:00,69.6,30.2,30.30,SE,135,3.0,6.0,23,0.00,,,0.00,meteohub,2013-03-15 17:18:00,
2013-03-15 13:20:00,69.8,29.3,30.30,North,0,5.0,6.0,22,0.00,,,0.00,meteohub,2013-03-15 17:20:00,
2013-03-15 13:22:00,70.0,28.2,30.30,North,0,3.0,6.0,21,0.00,,,0.00,meteohub,2013-03-15 17:22:00,
2013-03-15 13:23:00,70.0,29.3,30.30,East,90,5.0,6.0,22,0.00,,,0.00,meteohub,2013-03-15 17:23:00,
2013-03-15 13:27:00,70.0,28.2,30.30,NE,45,4.0,5.0,21,0.00,,,0.00,meteohub,2013-03-15 17:27:00,
2013-03-15 13:28:00,70.0,27.1,30.30,North,0,3.0,5.0,20,0.00,,,0.00,meteohub,2013-03-15 17:28:00,
2013-03-15 13:30:00,70.0,28.2,30.30,East,90,2.0,5.0,21,0.00,,,0.00,meteohub,2013-03-15 17:30:00,
2013-03-15 13:32:00,70.0,29.3,30.30,East,90,6.0,6.0,22,0.00,,,0.00,meteohub,2013-03-15 17:32:00,
2013-03-15 13:34:00,70.0,28.2,30.30,NW,315,2.0,5.0,21,0.00,,,0.00,meteohub,2013-03-15 17:34:00,
2013-03-15 13:36:00,70.0,28.2,30.30,East,90,3.0,6.0,21,0.00,,,0.00,meteohub,2013-03-15 17:36:00,
2013-03-15 13:38:00,70.2,29.5,30.30,East,90,4.0,6.0,22,0.00,,,0.00,meteohub,2013-03-15 17:38:00,
2013-03-15 13:39:00,70.3,29.7,30.30,SW,225,2.0,6.0,22,0.00,,,0.00,meteohub,2013-03-15 17:39:00,
2013-03-15 13:41:00,70.5,29.8,30.30,North,0,3.0,6.0,22,0.00,,,0.00,meteohub,2013-03-15 17:41:00,
2013-03-15 13:42:00,70.5,29.8,30.30,North,0,3.0,6.0,22,0.00,,,0.00,meteohub,2013-03-15 17:42:00,
2013-03-15 13:44:00,70.3,29.7,30.29,North,0,2.0,6.0,22,0.00,,,0.00,meteohub,2013-03-15 17:44:00,
2013-03-15 13:47:00,70.7,30.0,30.29,NW,315,2.0,6.0,22,0.00,,,0.00,meteohub,2013-03-15 17:47:00,
2013-03-15 13:48:00,70.9,30.2,30.29,SW,225,2.0,6.0,22,0.00,,,0.00,meteohub,2013-03-15 17:48:00,
2013-03-15 13:51:00,70.9,33.3,30.29,West,270,5.0,5.0,25,0.00,,,0.00,meteohub,2013-03-15 17:51:00,
2013-03-15 13:53:00,70.5,36.7,30.29,West,270,5.0,5.0,29,0.00,,,0.00,meteohub,2013-03-15 17:53:00,
2013-03-15 13:54:00,70.3,37.4,30.29,South,180,2.0,4.0,30,0.00,,,0.00,meteohub,2013-03-15 17:54:00,
2013-03-15 13:56:00,70.2,37.2,30.29,South,180,3.0,5.0,30,0.00,,,0.00,meteohub,2013-03-15 17:56:00,
2013-03-15 13:59:00,69.6,39.9,30.29,NW,315,4.0,5.0,34,0.00,,,0.00,meteohub,2013-03-15 17:59:00,
2013-03-15 14:01:00,69.4,39.0,30.29,NW,315,9.0,9.0,33,0.00,,,0.00,meteohub,2013-03-15 18:01:00,
2013-03-15 14:02:00,69.1,38.8,30.29,West,270,10.0,10.0,33,0.00,,,0.00,meteohub,2013-03-15 18:02:00,
2013-03-15 14:04:00,68.4,38.1,30.29,North,0,9.0,9.0,33,0.00,,,0.00,meteohub,2013-03-15 18:04:00,
2013-03-15 14:07:00,68.0,37.8,30.29,SW,225,9.0,10.0,33,0.00,,,0.00,meteohub,2013-03-15 18:07:00,
2013-03-15 14:09:00,68.2,38.7,30.28,NW,315,7.0,10.0,34,0.00,,,0.00,meteohub,2013-03-15 18:09:00,
2013-03-15 14:10:00,68.0,38.7,30.28,SW,225,8.0,10.0,34,0.00,,,0.00,meteohub,2013-03-15 18:10:00,
2013-03-15 14:12:00,68.0,38.7,30.29,SW,225,12.0,12.0,34,0.00,,,0.00,meteohub,2013-03-15 18:12:00,
2013-03-15 14:14:00,67.1,38.5,30.28,SW,225,10.0,10.0,35,0.00,,,0.00,meteohub,2013-03-15 18:14:00,
2013-03-15 14:15:00,66.7,39.0,30.28,NW,315,11.0,12.0,36,0.00,,,0.00,meteohub,2013-03-15 18:15:00,
2013-03-15 14:18:00,66.4,37.9,30.28,West,270,8.0,12.0,35,0.00,,,0.00,meteohub,2013-03-15 18:18:00,
2013-03-15 14:20:00,66.6,37.4,30.28,NW,315,10.0,12.0,34,0.00,,,0.00,meteohub,2013-03-15 18:20:00,
2013-03-15 14:21:00,66.6,37.4,30.28,West,270,8.0,12.0,34,0.00,,,0.00,meteohub,2013-03-15 18:21:00,
2013-03-15 14:22:00,66.6,37.4,30.28,NW,315,3.0,12.0,34,0.00,,,0.00,meteohub,2013-03-15 18:22:00,
2013-03-15 14:23:00,66.6,37.4,30.28,SW,225,10.0,12.0,34,0.00,,,0.00,meteohub,2013-03-15 18:23:00,
2013-03-15 14:26:00,66.4,35.6,30.28,West,270,10.0,12.0,32,0.00,,,0.00,meteohub,2013-03-15 18:26:00,
2013-03-15 14:27:00,66.4,35.6,30.27,West,270,10.0,12.0,32,0.00,,,0.00,meteohub,2013-03-15 18:27:00,
2013-03-15 14:28:00,66.2,35.4,30.28,West,270,4.0,12.0,32,0.00,,,0.00,meteohub,2013-03-15 18:28:00,
2013-03-15 14:32:00,66.4,34.0,30.27,SW,225,8.0,11.0,30,0.00,,,0.00,meteohub,2013-03-15 18:32:00,
2013-03-15 14:33:00,66.4,34.0,30.27,SW,225,11.0,11.0,30,0.00,,,0.00,meteohub,2013-03-15 18:33:00,
2013-03-15 14:35:00,66.2,34.7,30.27,West,270,8.0,11.0,31,0.00,,,0.00,meteohub,2013-03-15 18:35:00,
2013-03-15 14:38:00,66.0,37.6,30.27,NW,315,4.0,11.0,35,0.00,,,0.00,meteohub,2013-03-15 18:38:00,
2013-03-15 14:39:00,66.2,37.0,30.27,South,180,13.0,13.0,34,0.00,,,0.00,meteohub,2013-03-15 18:39:00,
2013-03-15 14:41:00,66.4,37.2,30.27,SW,225,11.0,11.0,34,0.00,,,0.00,meteohub,2013-03-15 18:41:00,
2013-03-15 14:42:00,66.2,37.0,30.27,SW,225,11.0,11.0,34,0.00,,,0.00,meteohub,2013-03-15 18:42:00,
2013-03-15 14:45:00,66.0,37.6,30.27,West,270,9.0,11.0,35,0.00,,,0.00,meteohub,2013-03-15 18:45:00,
2013-03-15 14:48:00,66.0,37.6,30.27,West,270,8.0,13.0,35,0.00,,,0.00,meteohub,2013-03-15 18:48:00,
2013-03-15 14:52:00,66.9,36.1,30.26,West,270,11.0,13.0,32,0.00,,,0.00,meteohub,2013-03-15 18:52:00,
2013-03-15 14:53:00,66.9,35.2,30.26,NW,315,8.0,13.0,31,0.00,,,0.00,meteohub,2013-03-15 18:53:00,
2013-03-15 14:54:00,66.7,34.3,30.27,NW,315,7.0,13.0,30,0.00,,,0.00,meteohub,2013-03-15 18:54:00,
2013-03-15 14:57:00,66.6,34.2,30.27,NW,315,4.0,11.0,30,0.00,,,0.00,meteohub,2013-03-15 18:57:00,
2013-03-15 15:00:00,66.7,34.3,30.27,NW,315,7.0,11.0,30,0.00,,,0.00,meteohub,2013-03-15 19:00:00,
2013-03-15 15:01:00,66.7,34.3,30.26,West,270,6.0,11.0,30,0.00,,,0.00,meteohub,2013-03-15 19:01:00,
2013-03-15 15:02:00,66.7,33.4,30.26,SW,225,5.0,11.0,29,0.00,,,0.00,meteohub,2013-03-15 19:02:00,
2013-03-15 15:07:00,66.7,35.1,30.26,NW,315,7.0,11.0,31,0.00,,,0.00,meteohub,2013-03-15 19:07:00,
2013-03-15 15:09:00,66.7,34.3,30.26,West,270,7.0,11.0,30,0.00,,,0.00,meteohub,2013-03-15 19:09:00,
2013-03-15 15:12:00,66.6,35.1,30.26,SW,225,11.0,11.0,31,0.00,,,0.00,meteohub,2013-03-15 19:12:00,
2013-03-15 15:16:00,66.0,35.2,30.26,SW,225,7.0,11.0,32,0.00,,,0.00,meteohub,2013-03-15 19:16:00,
2013-03-15 15:17:00,66.4,36.3,30.26,West,270,8.0,11.0,33,0.00,,,0.00,meteohub,2013-03-15 19:17:00,
2013-03-15 15:18:00,66.4,36.3,30.26,SW,225,8.0,11.0,33,0.00,,,0.00,meteohub,2013-03-15 19:18:00,
2013-03-15 15:19:00,66.6,36.5,30.25,SW,225,8.0,11.0,33,0.00,,,0.00,meteohub,2013-03-15 19:19:00,
2013-03-15 15:23:00,66.7,37.4,30.25,SW,225,8.0,11.0,34,0.00,,,0.00,meteohub,2013-03-15 19:23:00,
2013-03-15 15:24:00,66.9,37.6,30.25,SW,225,8.0,11.0,34,0.00,,,0.00,meteohub,2013-03-15 19:24:00,
2013-03-15 15:25:00,66.9,36.9,30.25,North,0,9.0,11.0,33,0.00,,,0.00,meteohub,2013-03-15 19:25:00,
2013-03-15 15:29:00,67.1,37.0,30.26,SW,225,6.0,11.0,33,0.00,,,0.00,meteohub,2013-03-15 19:29:00,
2013-03-15 15:30:00,67.3,37.2,30.25,NW,315,4.0,9.0,33,0.00,,,0.00,meteohub,2013-03-15 19:30:00,
2013-03-15 15:32:00,67.5,36.5,30.25,West,270,7.0,9.0,32,0.00,,,0.00,meteohub,2013-03-15 19:32:00,
2013-03-15 15:33:00,67.6,36.0,30.25,NW,315,7.0,9.0,31,0.00,,,0.00,meteohub,2013-03-15 19:33:00,
2013-03-15 15:36:00,67.6,36.0,30.25,West,270,5.0,9.0,31,0.00,,,0.00,meteohub,2013-03-15 19:36:00,
2013-03-15 15:37:00,67.5,35.8,30.25,NE,45,6.0,9.0,31,0.00,,,0.00,meteohub,2013-03-15 19:37:00,
2013-03-15 15:40:00,67.8,36.1,30.25,NW,315,4.0,9.0,31,0.00,,,0.00,meteohub,2013-03-15 19:40:00,
2013-03-15 15:42:00,67.8,36.9,30.25,North,0,8.0,9.0,32,0.00,,,0.00,meteohub,2013-03-15 19:42:00,
2013-03-15 15:43:00,67.8,36.1,30.25,West,270,4.0,9.0,31,0.00,,,0.00,meteohub,2013-03-15 19:43:00,
2013-03-15 15:47:00,67.6,36.0,30.25,NW,315,5.0,10.0,31,0.00,,,0.00,meteohub,2013-03-15 19:47:00,
2013-03-15 15:48:00,67.6,37.6,30.25,SW,225,4.0,10.0,33,0.00,,,0.00,meteohub,2013-03-15 19:48:00,
2013-03-15 15:51:00,67.8,36.9,30.25,NW,315,4.0,10.0,32,0.00,,,0.00,meteohub,2013-03-15 19:51:00,
2013-03-15 15:53:00,68.0,37.0,30.25,West,270,8.0,10.0,32,0.00,,,0.00,meteohub,2013-03-15 19:53:00,
2013-03-15 15:57:00,67.8,36.9,30.25,SW,225,10.0,10.0,32,0.00,,,0.00,meteohub,2013-03-15 19:57:00,
2013-03-15 15:58:00,67.5,35.8,30.25,NW,315,8.0,10.0,31,0.00,,,0.00,meteohub,2013-03-15 19:58:00,
2013-03-15 15:59:00,67.5,35.8,30.25,NW,315,8.0,10.0,31,0.00,,,0.00,meteohub,2013-03-15 19:59:00,
2013-03-15 16:03:00,67.5,36.5,30.25,West,270,8.0,14.0,32,0.00,,,0.00,meteohub,2013-03-15 20:03:00,
2013-03-15 16:04:00,67.5,37.4,30.25,West,270,8.0,14.0,33,0.00,,,0.00,meteohub,2013-03-15 20:04:00,
2013-03-15 16:05:00,67.5,38.1,30.24,SW,225,4.0,14.0,34,0.00,,,0.00,meteohub,2013-03-15 20:05:00,
2013-03-15 16:08:00,67.8,38.5,30.24,NW,315,8.0,14.0,34,0.00,,,0.00,meteohub,2013-03-15 20:08:00,
2013-03-15 16:10:00,67.8,36.9,30.24,West,270,5.0,14.0,32,0.00,,,0.00,meteohub,2013-03-15 20:10:00,
2013-03-15 16:11:00,67.8,36.9,30.24,North,0,7.0,14.0,32,0.00,,,0.00,meteohub,2013-03-15 20:11:00,
2013-03-15 16:13:00,67.8,37.6,30.24,SW,225,4.0,14.0,33,0.00,,,0.00,meteohub,2013-03-15 20:13:00,
2013-03-15 16:16:00,68.2,37.2,30.24,NW,315,7.0,9.0,32,0.00,,,0.00,meteohub,2013-03-15 20:16:00,
2013-03-15 16:18:00,68.2,36.3,30.24,SW,225,7.0,9.0,31,0.00,,,0.00,meteohub,2013-03-15 20:18:00,
2013-03-15 16:19:00,68.2,36.3,30.24,South,180,4.0,9.0,31,0.00,,,0.00,meteohub,2013-03-15 20:19:00,
2013-03-15 16:20:00,68.0,37.0,30.24,WNW,293,4.0,9.0,32,0.00,,,0.00,meteohub,2013-03-15 20:20:00,
2013-03-15 16:23:00,68.2,37.9,30.24,SW,225,7.0,9.0,33,0.00,,,0.00,meteohub,2013-03-15 20:23:00,
2013-03-15 16:24:00,68.2,37.9,30.23,NW,315,2.0,9.0,33,0.00,,,0.00,meteohub,2013-03-15 20:24:00,
2013-03-15 16:29:00,68.0,37.0,30.24,NW,315,6.0,8.0,32,0.00,,,0.00,meteohub,2013-03-15 20:29:00,
2013-03-15 16:30:00,67.8,37.6,30.24,West,270,7.0,11.0,33,0.00,,,0.00,meteohub,2013-03-15 20:30:00,
2013-03-15 16:31:00,67.6,37.6,30.23,North,0,7.0,11.0,33,0.00,,,0.00,meteohub,2013-03-15 20:31:00,
2013-03-15 16:35:00,67.8,38.5,30.23,WNW,293,5.0,11.0,34,0.00,,,0.00,meteohub,2013-03-15 20:35:00,
2013-03-15 16:36:00,68.0,37.8,30.23,NW,315,8.0,11.0,33,0.00,,,0.00,meteohub,2013-03-15 20:36:00,
2013-03-15 16:37:00,68.0,37.8,30.23,NW,315,8.0,11.0,33,0.00,,,0.00,meteohub,2013-03-15 20:37:00,
2013-03-15 16:38:00,68.0,37.0,30.23,SW,225,6.0,11.0,32,0.00,,,0.00,meteohub,2013-03-15 20:38:00,
2013-03-15 16:42:00,68.0,37.8,30.23,NW,315,3.0,11.0,33,0.00,,,0.00,meteohub,2013-03-15 20:42:00,
2013-03-15 16:44:00,68.2,37.9,30.23,NW,315,9.0,11.0,33,0.00,,,0.00,meteohub,2013-03-15 20:44:00,
2013-03-15 16:47:00,67.8,38.5,30.22,West,270,7.0,8.0,34,0.00,,,0.00,meteohub,2013-03-15 20:47:00,
2013-03-15 16:48:00,67.8,38.5,30.22,West,270,7.0,8.0,34,0.00,,,0.00,meteohub,2013-03-15 20:48:00,
2013-03-15 16:49:00,67.8,38.5,30.23,NE,45,5.0,8.0,34,0.00,,,0.00,meteohub,2013-03-15 20:49:00,
2013-03-15 16:50:00,67.8,38.5,30.23,NW,315,3.0,8.0,34,0.00,,,0.00,meteohub,2013-03-15 20:50:00,
2013-03-15 16:54:00,67.6,38.3,30.22,NW,315,8.0,9.0,34,0.00,,,0.00,meteohub,2013-03-15 20:54:00,
2013-03-15 16:55:00,67.6,38.3,30.22,NW,315,8.0,9.0,34,0.00,,,0.00,meteohub,2013-03-15 20:55:00,
2013-03-15 17:00:00,67.5,38.1,30.22,SW,225,4.0,8.0,34,0.00,,,0.00,meteohub,2013-03-15 21:00:00,
2013-03-15 17:01:00,67.6,39.0,30.22,North,0,4.0,8.0,35,0.00,,,0.00,meteohub,2013-03-15 21:01:00,
2013-03-15 17:02:00,67.6,39.0,30.22,SW,225,8.0,8.0,35,0.00,,,0.00,meteohub,2013-03-15 21:02:00,
2013-03-15 17:06:00,67.6,38.3,30.22,SW,225,6.0,9.0,34,0.00,,,0.00,meteohub,2013-03-15 21:06:00,
2013-03-15 17:07:00,67.6,38.3,30.22,NE,45,4.0,9.0,34,0.00,,,0.00,meteohub,2013-03-15 21:07:00,
2013-03-15 17:12:00,68.2,37.9,30.22,SW,225,7.0,9.0,33,0.00,,,0.00,meteohub,2013-03-15 21:12:00,
2013-03-15 17:14:00,68.4,38.1,30.22,NW,315,2.0,9.0,33,0.00,,,0.00,meteohub,2013-03-15 21:14:00,
2013-03-15 17:17:00,68.4,38.1,30.22,NW,315,8.0,9.0,33,0.00,,,0.00,meteohub,2013-03-15 21:17:00,
2013-03-15 17:19:00,68.2,37.9,30.22,West,270,4.0,9.0,33,0.00,,,0.00,meteohub,2013-03-15 21:19:00,
2013-03-15 17:20:00,68.0,37.8,30.22,North,0,7.0,9.0,33,0.00,,,0.00,meteohub,2013-03-15 21:20:00,
2013-03-15 17:22:00,68.0,38.7,30.22,SW,225,3.0,8.0,34,0.00,,,0.00,meteohub,2013-03-15 21:22:00,
2013-03-15 17:24:00,68.2,38.7,30.22,NW,315,4.0,8.0,34,0.00,,,0.00,meteohub,2013-03-15 21:24:00,
2013-03-15 17:26:00,68.4,38.8,30.22,NW,315,5.0,8.0,34,0.00,,,0.00,meteohub,2013-03-15 21:26:00,
2013-03-15 17:28:00,68.2,38.7,30.23,NW,315,4.0,8.0,34,0.00,,,0.00,meteohub,2013-03-15 21:28:00,
2013-03-15 17:29:00,68.2,38.7,30.22,NW,315,4.0,8.0,34,0.00,,,0.00,meteohub,2013-03-15 21:29:00,
2013-03-15 17:31:00,68.2,38.7,30.22,SW,225,4.0,8.0,34,0.00,,,0.00,meteohub,2013-03-15 21:31:00,
2013-03-15 17:34:00,67.8,38.5,30.22,NW,315,4.0,8.0,34,0.00,,,0.00,meteohub,2013-03-15 21:34:00,
2013-03-15 17:36:00,67.6,38.3,30.22,West,270,7.0,8.0,34,0.00,,,0.00,meteohub,2013-03-15 21:36:00,
2013-03-15 17:37:00,67.5,38.8,30.22,NW,315,8.0,8.0,35,0.00,,,0.00,meteohub,2013-03-15 21:37:00,
2013-03-15 17:39:00,67.3,38.7,30.22,NW,315,3.0,8.0,35,0.00,,,0.00,meteohub,2013-03-15 21:39:00,
2013-03-15 17:42:00,67.3,39.4,30.22,West,270,6.0,9.0,36,0.00,,,0.00,meteohub,2013-03-15 21:42:00,
2013-03-15 17:43:00,67.1,38.5,30.22,West,270,3.0,9.0,35,0.00,,,0.00,meteohub,2013-03-15 21:43:00,
2013-03-15 17:44:00,67.1,38.5,30.22,NW,315,4.0,9.0,35,0.00,,,0.00,meteohub,2013-03-15 21:44:00,
2013-03-15 17:46:00,67.1,39.2,30.22,North,0,6.0,9.0,36,0.00,,,0.00,meteohub,2013-03-15 21:46:00,
2013-03-15 17:47:00,67.1,39.2,30.22,NW,315,2.0,9.0,36,0.00,,,0.00,meteohub,2013-03-15 21:47:00,
2013-03-15 17:49:00,67.3,40.1,30.22,East,90,3.0,9.0,37,0.00,,,0.00,meteohub,2013-03-15 21:49:00,
2013-03-15 17:50:00,67.5,40.3,30.22,NW,315,2.0,8.0,37,0.00,,,0.00,meteohub,2013-03-15 21:50:00,
2013-03-15 17:53:00,67.6,40.5,30.22,East,90,2.0,8.0,37,0.00,,,0.00,meteohub,2013-03-15 21:53:00,
2013-03-15 17:54:00,67.8,40.6,30.22,North,0,4.0,8.0,37,0.00,,,0.00,meteohub,2013-03-15 21:54:00,
2013-03-15 17:55:00,67.8,40.6,30.22,North,0,3.0,8.0,37,0.00,,,0.00,meteohub,2013-03-15 21:55:00,
2013-03-15 17:56:00,67.8,40.6,30.22,West,270,4.0,8.0,37,0.00,,,0.00,meteohub,2013-03-15 21:56:00,
2013-03-15 17:59:00,67.5,39.6,30.22,NW,315,3.0,8.0,36,0.00,,,0.00,meteohub,2013-03-15 21:59:00,
2013-03-15 18:01:00,67.3,39.4,30.22,West,270,5.0,6.0,36,0.00,,,0.00,meteohub,2013-03-15 22:01:00,
2013-03-15 18:02:00,67.3,39.4,30.22,North,0,4.0,6.0,36,0.00,,,0.00,meteohub,2013-03-15 22:02:00,
2013-03-15 18:04:00,67.3,40.1,30.22,North,0,4.0,6.0,37,0.00,,,0.00,meteohub,2013-03-15 22:04:00,
2013-03-15 18:05:00,67.3,40.1,30.22,SW,225,2.0,6.0,37,0.00,,,0.00,meteohub,2013-03-15 22:05:00,
2013-03-15 18:07:00,67.3,40.1,30.22,West,270,4.0,6.0,37,0.00,,,0.00,meteohub,2013-03-15 22:07:00,
2013-03-15 18:10:00,67.1,39.9,30.22,North,0,4.0,6.0,37,0.00,,,0.00,meteohub,2013-03-15 22:10:00,
2013-03-15 18:14:00,66.9,41.2,30.22,SW,225,5.0,6.0,39,0.00,,,0.00,meteohub,2013-03-15 22:14:00,
2013-03-15 18:15:00,66.9,41.2,30.21,NW,315,5.0,6.0,39,0.00,,,0.00,meteohub,2013-03-15 22:15:00,
2013-03-15 18:17:00,66.9,41.2,30.21,NW,315,3.0,5.0,39,0.00,,,0.00,meteohub,2013-03-15 22:17:00,
2013-03-15 18:20:00,66.7,41.0,30.21,NW,315,2.0,5.0,39,0.00,,,0.00,meteohub,2013-03-15 22:20:00,
2013-03-15 18:21:00,66.7,41.0,30.22,West,270,3.0,5.0,39,0.00,,,0.00,meteohub,2013-03-15 22:21:00,
2013-03-15 18:24:00,66.9,41.9,30.21,West,270,2.0,5.0,40,0.00,,,0.00,meteohub,2013-03-15 22:24:00,
2013-03-15 18:26:00,67.1,41.4,30.21,North,0,4.0,5.0,39,0.00,,,0.00,meteohub,2013-03-15 22:26:00,
2013-03-15 18:27:00,66.9,40.5,30.21,NW,315,4.0,5.0,38,0.00,,,0.00,meteohub,2013-03-15 22:27:00,
2013-03-15 18:30:00,66.7,41.0,30.22,South,180,2.0,4.0,39,0.00,,,0.00,meteohub,2013-03-15 22:30:00,
2013-03-15 18:31:00,66.6,40.8,30.22,SW,225,3.0,4.0,39,0.00,,,0.00,meteohub,2013-03-15 22:31:00,
2013-03-15 18:32:00,66.6,40.8,30.21,SW,225,2.0,4.0,39,0.00,,,0.00,meteohub,2013-03-15 22:32:00,
2013-03-15 18:34:00,66.6,41.5,30.21,NW,315,4.0,4.0,40,0.00,,,0.00,meteohub,2013-03-15 22:34:00,
2013-03-15 18:36:00,66.6,41.5,30.21,North,0,2.0,4.0,40,0.00,,,0.00,meteohub,2013-03-15 22:36:00,
2013-03-15 18:37:00,66.6,41.5,30.22,West,270,4.0,4.0,40,0.00,,,0.00,meteohub,2013-03-15 22:37:00,
2013-03-15 18:41:00,66.2,41.7,30.21,North,0,3.0,4.0,41,0.00,,,0.00,meteohub,2013-03-15 22:41:00,
2013-03-15 18:42:00,66.0,42.3,30.21,North,0,3.0,4.0,42,0.00,,,0.00,meteohub,2013-03-15 22:42:00,
2013-03-15 18:44:00,65.8,42.1,30.21,NW,315,2.0,4.0,42,0.00,,,0.00,meteohub,2013-03-15 22:44:00,
2013-03-15 18:46:00,65.3,42.3,30.21,North,0,3.0,4.0,43,0.00,,,0.00,meteohub,2013-03-15 22:46:00,
2013-03-15 18:47:00,65.3,42.8,30.21,NW,315,3.0,4.0,44,0.00,,,0.00,meteohub,2013-03-15 22:47:00,
2013-03-15 18:48:00,65.1,43.3,30.21,NW,315,2.0,4.0,45,0.00,,,0.00,meteohub,2013-03-15 22:48:00,
2013-03-15 18:50:00,64.9,42.4,30.21,SW,225,2.0,4.0,44,0.00,,,0.00,meteohub,2013-03-15 22:50:00,
2013-03-15 18:52:00,64.8,43.0,30.21,North,0,2.0,4.0,45,0.00,,,0.00,meteohub,2013-03-15 22:52:00,
2013-03-15 18:53:00,64.6,42.8,30.21,SW,225,3.0,4.0,45,0.00,,,0.00,meteohub,2013-03-15 22:53:00,
2013-03-15 18:54:00,64.4,42.6,30.21,NE,45,3.0,4.0,45,0.00,,,0.00,meteohub,2013-03-15 22:54:00,
2013-03-15 18:59:00,64.2,41.2,30.22,North,0,2.0,4.0,43,0.00,,,0.00,meteohub,2013-03-15 22:59:00,
2013-03-15 19:00:00,64.2,41.2,30.21,SW,225,2.0,4.0,43,0.00,,,0.00,meteohub,2013-03-15 23:00:00,
2013-03-15 19:02:00,64.2,41.2,30.21,North,0,4.0,4.0,43,0.00,,,0.00,meteohub,2013-03-15 23:02:00,
2013-03-15 19:04:00,64.0,41.7,30.21,NW,315,1.0,4.0,44,0.00,,,0.00,meteohub,2013-03-15 23:04:00,
2013-03-15 19:10:00,64.0,42.3,30.22,North,0,1.0,4.0,45,0.00,,,0.00,meteohub,2013-03-15 23:10:00,
2013-03-15 19:11:00,64.0,42.3,30.22,South,180,2.0,4.0,45,0.00,,,0.00,meteohub,2013-03-15 23:11:00,
2013-03-15 19:13:00,63.9,42.1,30.22,NW,315,1.0,4.0,45,0.00,,,0.00,meteohub,2013-03-15 23:13:00,
2013-03-15 19:16:00,63.9,42.1,30.22,North,0,2.0,4.0,45,0.00,,,0.00,meteohub,2013-03-15 23:16:00,
2013-03-15 19:18:00,63.7,42.4,30.22,North,0,1.0,4.0,46,0.00,,,0.00,meteohub,2013-03-15 23:18:00,
2013-03-15 19:19:00,63.7,42.4,30.22,West,270,1.0,4.0,46,0.00,,,0.00,meteohub,2013-03-15 23:19:00,
2013-03-15 19:21:00,63.5,42.3,30.22,NW,315,1.0,2.0,46,0.00,,,0.00,meteohub,2013-03-15 23:21:00,
2013-03-15 19:23:00,63.5,42.3,30.22,North,0,1.0,2.0,46,0.00,,,0.00,meteohub,2013-03-15 23:23:00,
2013-03-15 19:25:00,63.3,42.8,30.22,North,0,1.0,2.0,47,0.00,,,0.00,meteohub,2013-03-15 23:25:00,
2013-03-15 19:26:00,63.3,42.8,30.22,West,270,2.0,2.0,47,0.00,,,0.00,meteohub,2013-03-15 23:26:00,
2013-03-15 19:27:00,63.1,42.6,30.22,NW,315,1.0,2.0,47,0.00,,,0.00,meteohub,2013-03-15 23:27:00,
2013-03-15 19:30:00,63.0,43.0,30.22,NW,315,0.0,2.0,48,0.00,,,0.00,meteohub,2013-03-15 23:30:00,
2013-03-15 19:31:00,63.0,43.0,30.22,NW,315,0.0,2.0,48,0.00,,,0.00,meteohub,2013-03-15 23:31:00,
2013-03-15 19:32:00,62.8,42.8,30.22,SE,135,0.0,2.0,48,0.00,,,0.00,meteohub,2013-03-15 23:32:00,
2013-03-15 19:33:00,62.6,42.6,30.22,NE,45,0.0,2.0,48,0.00,,,0.00,meteohub,2013-03-15 23:33:00,
2013-03-15 19:36:00,62.2,42.8,30.22,North,0,1.0,2.0,49,0.00,,,0.00,meteohub,2013-03-15 23:36:00,
2013-03-15 19:37:00,62.2,42.8,30.22,North,0,1.0,2.0,49,0.00,,,0.00,meteohub,2013-03-15 23:37:00,
2013-03-15 19:39:00,61.9,43.0,30.22,North,0,1.0,2.0,50,0.00,,,0.00,meteohub,2013-03-15 23:39:00,
2013-03-15 19:40:00,61.7,42.8,30.22,North,0,1.0,2.0,50,0.00,,,0.00,meteohub,2013-03-15 23:40:00,
2013-03-15 19:42:00,61.5,43.2,30.22,NW,315,1.0,2.0,51,0.00,,,0.00,meteohub,2013-03-15 23:42:00,
2013-03-15 19:44:00,61.2,43.3,30.22,North,0,1.0,2.0,52,0.00,,,0.00,meteohub,2013-03-15 23:44:00,
2013-03-15 19:45:00,61.2,43.3,30.22,North,0,1.0,2.0,52,0.00,,,0.00,meteohub,2013-03-15 23:45:00,
2013-03-15 19:47:00,61.0,43.2,30.22,North,0,2.0,2.0,52,0.00,,,0.00,meteohub,2013-03-15 23:47:00,
2013-03-15 19:49:00,60.8,43.5,30.22,West,270,1.0,2.0,53,0.00,,,0.00,meteohub,2013-03-15 23:49:00,
2013-03-15 19:50:00,60.8,43.5,30.22,West,270,0.0,2.0,53,0.00,,,0.00,meteohub,2013-03-15 23:50:00,
2013-03-15 19:52:00,60.6,43.9,30.22,West,270,0.0,2.0,54,0.00,,,0.00,meteohub,2013-03-15 23:52:00,
2013-03-15 19:53:00,60.4,43.7,30.22,SW,225,0.0,2.0,54,0.00,,,0.00,meteohub,2013-03-15 23:53:00,
2013-03-15 19:54:00,60.4,43.7,30.22,SW,225,0.0,2.0,54,0.00,,,0.00,meteohub,2013-03-15 23:54:00,
2013-03-15 19:56:00,60.3,43.5,30.22,NE,45,1.0,2.0,54,0.00,,,0.00,meteohub,2013-03-15 23:56:00,
2013-03-15 19:57:00,60.3,44.1,30.22,NE,45,0.0,2.0,55,0.00,,,0.00,meteohub,2013-03-15 23:57:00,
2013-03-15 19:59:00,60.1,43.9,30.22,North,0,0.0,2.0,55,0.00,,,0.00,meteohub,2013-03-15 23:59:00,
2013-03-15 20:02:00,59.9,43.7,30.22,North,0,0.0,2.0,55,0.00,,,0.00,meteohub,2013-03-16 00:02:00,
2013-03-15 20:03:00,59.7,43.5,30.22,North,0,0.0,2.0,55,0.00,,,0.00,meteohub,2013-03-16 00:03:00,
2013-03-15 20:05:00,59.5,43.9,30.22,North,0,0.0,1.0,56,0.00,,,0.00,meteohub,2013-03-16 00:05:00,
2013-03-15 20:07:00,59.5,43.9,30.22,North,0,1.0,1.0,56,0.00,,,0.00,meteohub,2013-03-16 00:07:00,
2013-03-15 20:08:00,59.4,44.1,30.22,North,0,0.0,1.0,57,0.00,,,0.00,meteohub,2013-03-16 00:08:00,
2013-03-15 20:09:00,59.4,44.1,30.22,North,0,0.0,1.0,57,0.00,,,0.00,meteohub,2013-03-16 00:09:00,
2013-03-15 20:10:00,59.4,44.1,30.22,North,0,0.0,1.0,57,0.00,,,0.00,meteohub,2013-03-16 00:10:00,
2013-03-15 20:12:00,59.2,43.9,30.22,North,0,0.0,1.0,57,0.00,,,0.00,meteohub,2013-03-16 00:12:00,
2013-03-15 20:13:00,59.2,43.9,30.22,North,0,0.0,1.0,57,0.00,,,0.00,meteohub,2013-03-16 00:13:00,
2013-03-15 20:14:00,59.2,43.9,30.22,North,0,0.0,1.0,57,0.00,,,0.00,meteohub,2013-03-16 00:14:00,
2013-03-15 20:17:00,59.0,44.2,30.22,North,0,1.0,1.0,58,0.00,,,0.00,meteohub,2013-03-16 00:17:00,
2013-03-15 20:19:00,58.8,45.0,30.22,North,0,0.0,1.0,60,0.00,,,0.00,meteohub,2013-03-16 00:19:00,
2013-03-15 20:20:00,58.8,45.0,30.22,North,0,1.0,2.0,60,0.00,,,0.00,meteohub,2013-03-16 00:20:00,
2013-03-15 20:22:00,58.6,45.3,30.22,North,0,0.0,2.0,61,0.00,,,0.00,meteohub,2013-03-16 00:22:00,
2013-03-15 20:25:00,58.5,45.1,30.22,North,0,0.0,2.0,61,0.00,,,0.00,meteohub,2013-03-16 00:25:00,
2013-03-15 20:26:00,58.5,45.1,30.22,North,0,0.0,2.0,61,0.00,,,0.00,meteohub,2013-03-16 00:26:00,
2013-03-15 20:27:00,58.5,45.1,30.22,North,0,0.0,2.0,61,0.00,,,0.00,meteohub,2013-03-16 00:27:00,
2013-03-15 20:28:00,58.3,45.0,30.22,North,0,0.0,2.0,61,0.00,,,0.00,meteohub,2013-03-16 00:28:00,
2013-03-15 20:32:00,58.1,45.1,30.22,North,0,0.0,2.0,62,0.00,,,0.00,meteohub,2013-03-16 00:32:00,
2013-03-15 20:33:00,57.9,45.0,30.22,North,0,0.0,2.0,62,0.00,,,0.00,meteohub,2013-03-16 00:33:00,
2013-03-15 20:34:00,57.9,45.0,30.22,North,0,0.0,2.0,62,0.00,,,0.00,meteohub,2013-03-16 00:34:00,
2013-03-15 20:37:00,57.7,45.3,30.22,North,0,0.0,1.0,63,0.00,,,0.00,meteohub,2013-03-16 00:37:00,
2013-03-15 20:39:00,57.6,45.1,30.22,North,0,0.0,1.0,63,0.00,,,0.00,meteohub,2013-03-16 00:39:00,
2013-03-15 20:40:00,57.6,45.1,30.22,North,0,0.0,1.0,63,0.00,,,0.00,meteohub,2013-03-16 00:40:00,
2013-03-15 20:43:00,57.2,45.1,30.22,North,0,0.0,0.0,64,0.00,,,0.00,meteohub,2013-03-16 00:43:00,
2013-03-15 20:44:00,57.2,45.1,30.22,North,0,0.0,0.0,64,0.00,,,0.00,meteohub,2013-03-16 00:44:00,
2013-03-15 20:45:00,57.2,45.1,30.22,North,0,0.0,0.0,64,0.00,,,0.00,meteohub,2013-03-16 00:45:00,
2013-03-15 20:48:00,56.8,45.1,30.22,North,0,0.0,0.0,65,0.00,,,0.00,meteohub,2013-03-16 00:48:00,
2013-03-15 20:49:00,56.8,45.1,30.22,North,0,0.0,0.0,65,0.00,,,0.00,meteohub,2013-03-16 00:49:00,
2013-03-15 20:50:00,56.8,45.1,30.22,North,0,0.0,0.0,65,0.00,,,0.00,meteohub,2013-03-16 00:50:00,
2013-03-15 20:54:00,56.7,45.5,30.22,North,0,0.0,0.0,66,0.00,,,0.00,meteohub,2013-03-16 00:54:00,
2013-03-15 20:55:00,56.7,45.5,30.22,North,0,0.0,0.0,66,0.00,,,0.00,meteohub,2013-03-16 00:55:00,
2013-03-15 20:56:00,56.7,45.5,30.23,North,0,0.0,0.0,66,0.00,,,0.00,meteohub,2013-03-16 00:56:00,
2013-03-15 20:59:00,56.5,45.3,30.22,North,0,0.0,0.0,66,0.00,,,0.00,meteohub,2013-03-16 00:59:00,
2013-03-15 21:00:00,56.5,45.3,30.22,North,0,0.0,0.0,66,0.00,,,0.00,meteohub,2013-03-16 01:00:00,
2013-03-15 21:03:00,56.3,45.5,30.22,North,0,0.0,0.0,67,0.00,,,0.00,meteohub,2013-03-16 01:03:00,
2013-03-15 21:04:00,56.3,45.5,30.22,North,0,0.0,0.0,67,0.00,,,0.00,meteohub,2013-03-16 01:04:00,
2013-03-15 21:06:00,56.3,45.5,30.22,North,0,0.0,0.0,67,0.00,,,0.00,meteohub,2013-03-16 01:06:00,
2013-03-15 21:08:00,56.3,45.9,30.22,North,0,0.0,0.0,68,0.00,,,0.00,meteohub,2013-03-16 01:08:00,
2013-03-15 21:09:00,56.3,45.9,30.22,North,0,0.0,0.0,68,0.00,,,0.00,meteohub,2013-03-16 01:09:00,
2013-03-15 21:11:00,56.3,45.9,30.22,North,0,0.0,0.0,68,0.00,,,0.00,meteohub,2013-03-16 01:11:00,
2013-03-15 21:13:00,56.1,45.7,30.22,North,0,0.0,0.0,68,0.00,,,0.00,meteohub,2013-03-16 01:13:00,
2013-03-15 21:15:00,56.1,45.7,30.22,North,0,0.0,0.0,68,0.00,,,0.00,meteohub,2013-03-16 01:15:00,
2013-03-15 21:17:00,55.9,45.5,30.22,North,0,0.0,0.0,68,0.00,,,0.00,meteohub,2013-03-16 01:17:00,
2013-03-15 21:19:00,55.9,45.5,30.22,North,0,0.0,0.0,68,0.00,,,0.00,meteohub,2013-03-16 01:19:00,
2013-03-15 21:22:00,55.9,45.9,30.22,North,0,0.0,0.0,69,0.00,,,0.00,meteohub,2013-03-16 01:22:00,
2013-03-15 21:24:00,55.8,45.7,30.22,North,0,0.0,0.0,69,0.00,,,0.00,meteohub,2013-03-16 01:24:00,
2013-03-15 21:25:00,55.8,45.7,30.22,North,0,0.0,0.0,69,0.00,,,0.00,meteohub,2013-03-16 01:25:00,
2013-03-15 21:27:00,55.8,45.7,30.22,North,0,0.0,0.0,69,0.00,,,0.00,meteohub,2013-03-16 01:27:00,
2013-03-15 21:30:00,55.9,46.2,30.22,North,0,0.0,0.0,70,0.00,,,0.00,meteohub,2013-03-16 01:30:00,
2013-03-15 21:32:00,55.8,46.0,30.22,North,0,0.0,0.0,70,0.00,,,0.00,meteohub,2013-03-16 01:32:00,
2013-03-15 21:33:00,55.8,46.0,30.23,North,0,0.0,0.0,70,0.00,,,0.00,meteohub,2013-03-16 01:33:00,
2013-03-15 21:37:00,55.8,46.0,30.23,North,0,0.0,0.0,70,0.00,,,0.00,meteohub,2013-03-16 01:37:00,
2013-03-15 21:38:00,55.6,46.0,30.22,North,0,0.0,0.0,70,0.00,,,0.00,meteohub,2013-03-16 01:38:00,
2013-03-15 21:39:00,55.6,46.0,30.23,North,0,0.0,0.0,70,0.00,,,0.00,meteohub,2013-03-16 01:39:00,
2013-03-15 21:40:00,55.6,46.0,30.22,North,0,0.0,0.0,70,0.00,,,0.00,meteohub,2013-03-16 01:40:00,
2013-03-15 21:42:00,55.4,45.9,30.22,North,0,0.0,0.0,70,0.00,,,0.00,meteohub,2013-03-16 01:42:00,
2013-03-15 21:45:00,55.4,46.2,30.22,North,0,0.0,0.0,71,0.00,,,0.00,meteohub,2013-03-16 01:45:00,
2013-03-15 21:46:00,55.2,46.0,30.23,North,0,0.0,0.0,71,0.00,,,0.00,meteohub,2013-03-16 01:46:00,
2013-03-15 21:49:00,55.0,46.2,30.23,North,0,0.0,0.0,72,0.00,,,0.00,meteohub,2013-03-16 01:49:00,
2013-03-15 21:51:00,55.0,46.2,30.23,North,0,0.0,0.0,72,0.00,,,0.00,meteohub,2013-03-16 01:51:00,
2013-03-15 21:52:00,55.0,46.2,30.23,North,0,1.0,0.0,72,0.00,,,0.00,meteohub,2013-03-16 01:52:00,
2013-03-15 21:54:00,54.9,46.0,30.22,North,0,0.0,0.0,72,0.00,,,0.00,meteohub,2013-03-16 01:54:00,
2013-03-15 21:56:00,54.9,46.4,30.23,North,0,0.0,1.0,73,0.00,,,0.00,meteohub,2013-03-16 01:56:00,
2013-03-15 21:58:00,54.7,46.2,30.23,North,0,0.0,1.0,73,0.00,,,0.00,meteohub,2013-03-16 01:58:00,
2013-03-15 22:00:00,54.7,46.2,30.23,North,0,0.0,1.0,73,0.00,,,0.00,meteohub,2013-03-16 02:00:00,
2013-03-15 22:02:00,54.7,46.6,30.23,North,0,0.0,1.0,74,0.00,,,0.00,meteohub,2013-03-16 02:02:00,
2013-03-15 22:06:00,54.3,46.2,30.23,North,0,0.0,1.0,74,0.00,,,0.00,meteohub,2013-03-16 02:06:00,
2013-03-15 22:07:00,54.3,46.2,30.23,North,0,0.0,1.0,74,0.00,,,0.00,meteohub,2013-03-16 02:07:00,
2013-03-15 22:12:00,54.1,46.4,30.23,North,0,0.0,0.0,75,0.00,,,0.00,meteohub,2013-03-16 02:12:00,
2013-03-15 22:13:00,54.0,46.2,30.23,North,0,0.0,0.0,75,0.00,,,0.00,meteohub,2013-03-16 02:13:00,
2013-03-15 22:15:00,54.0,46.2,30.23,North,0,0.0,0.0,75,0.00,,,0.00,meteohub,2013-03-16 02:15:00,
2013-03-15 22:17:00,53.8,46.0,30.23,North,0,0.0,0.0,75,0.00,,,0.00,meteohub,2013-03-16 02:17:00,
2013-03-15 22:19:00,53.8,46.0,30.24,North,0,0.0,0.0,75,0.00,,,0.00,meteohub,2013-03-16 02:19:00,
2013-03-15 22:21:00,53.6,45.9,30.24,North,0,0.0,0.0,75,0.00,,,0.00,meteohub,2013-03-16 02:21:00,
2013-03-15 22:22:00,53.6,46.2,30.23,North,0,0.0,0.0,76,0.00,,,0.00,meteohub,2013-03-16 02:22:00,
2013-03-15 22:24:00,53.6,46.6,30.23,North,0,0.0,0.0,77,0.00,,,0.00,meteohub,2013-03-16 02:24:00,
2013-03-15 22:25:00,53.6,46.6,30.23,North,0,1.0,0.0,77,0.00,,,0.00,meteohub,2013-03-16 02:25:00,
2013-03-15 22:27:00,53.6,46.6,30.23,North,0,0.0,0.0,77,0.00,,,0.00,meteohub,2013-03-16 02:27:00,
2013-03-15 22:28:00,53.6,46.6,30.23,North,0,0.0,0.0,77,0.00,,,0.00,meteohub,2013-03-16 02:28:00,
2013-03-15 22:31:00,53.4,47.1,30.23,North,0,1.0,1.0,79,0.00,,,0.00,meteohub,2013-03-16 02:31:00,
2013-03-15 22:32:00,53.4,47.1,30.23,North,0,1.0,1.0,79,0.00,,,0.00,meteohub,2013-03-16 02:32:00,
2013-03-15 22:33:00,53.4,47.5,30.23,North,0,0.0,1.0,80,0.00,,,0.00,meteohub,2013-03-16 02:33:00,
2013-03-15 22:35:00,53.4,47.5,30.24,North,0,0.0,1.0,80,0.00,,,0.00,meteohub,2013-03-16 02:35:00,
2013-03-15 22:36:00,53.4,47.5,30.24,North,0,0.0,1.0,80,0.00,,,0.00,meteohub,2013-03-16 02:36:00,
2013-03-15 22:38:00,53.2,47.5,30.23,North,0,0.0,1.0,81,0.00,,,0.00,meteohub,2013-03-16 02:38:00,
2013-03-15 22:40:00,53.2,47.5,30.24,North,0,0.0,1.0,81,0.00,,,0.00,meteohub,2013-03-16 02:40:00,
2013-03-15 22:41:00,53.1,47.3,30.23,North,0,0.0,1.0,81,0.00,,,0.00,meteohub,2013-03-16 02:41:00,
2013-03-15 22:43:00,53.1,47.3,30.23,North,0,0.0,1.0,81,0.00,,,0.00,meteohub,2013-03-16 02:43:00,
2013-03-15 22:44:00,53.1,47.3,30.23,North,0,0.0,1.0,81,0.00,,,0.00,meteohub,2013-03-16 02:44:00,
2013-03-15 22:49:00,52.9,47.5,30.24,North,0,0.0,1.0,82,0.00,,,0.00,meteohub,2013-03-16 02:49:00,
2013-03-15 22:50:00,52.9,47.5,30.24,North,0,0.0,0.0,82,0.00,,,0.00,meteohub,2013-03-16 02:50:00,
2013-03-15 22:54:00,52.9,47.5,30.24,North,0,0.0,0.0,82,0.00,,,0.00,meteohub,2013-03-16 02:54:00,
2013-03-15 22:55:00,52.7,47.3,30.24,North,0,0.0,0.0,82,0.00,,,0.00,meteohub,2013-03-16 02:55:00,
2013-03-15 22:56:00,52.7,47.3,30.24,North,0,0.0,0.0,82,0.00,,,0.00,meteohub,2013-03-16 02:56:00,
2013-03-15 22:59:00,52.7,47.3,30.24,North,0,0.0,0.0,82,0.00,,,0.00,meteohub,2013-03-16 02:59:00,
2013-03-15 23:02:00,52.5,47.1,30.24,North,0,0.0,1.0,82,0.00,,,0.00,meteohub,2013-03-16 03:02:00,
2013-03-15 23:04:00,52.3,46.9,30.24,North,0,0.0,1.0,82,0.00,,,0.00,meteohub,2013-03-16 03:04:00,
2013-03-15 23:07:00,52.3,46.9,30.24,SE,135,0.0,1.0,82,0.00,,,0.00,meteohub,2013-03-16 03:07:00,
2013-03-15 23:08:00,52.3,46.9,30.24,SE,135,0.0,1.0,82,0.00,,,0.00,meteohub,2013-03-16 03:08:00,
2013-03-15 23:09:00,52.2,46.8,30.24,SE,135,0.0,1.0,82,0.00,,,0.00,meteohub,2013-03-16 03:09:00,
2013-03-15 23:10:00,52.2,46.8,30.24,North,0,0.0,0.0,82,0.00,,,0.00,meteohub,2013-03-16 03:10:00,
2013-03-15 23:15:00,52.2,47.1,30.24,North,0,0.0,0.0,83,0.00,,,0.00,meteohub,2013-03-16 03:15:00,
2013-03-15 23:16:00,52.2,47.1,30.24,North,0,0.0,0.0,83,0.00,,,0.00,meteohub,2013-03-16 03:16:00,
2013-03-15 23:17:00,52.2,47.1,30.24,North,0,0.0,0.0,83,0.00,,,0.00,meteohub,2013-03-16 03:17:00,
2013-03-15 23:21:00,52.0,46.9,30.24,North,0,0.0,0.0,83,0.00,,,0.00,meteohub,2013-03-16 03:21:00,
2013-03-15 23:22:00,52.0,46.9,30.24,North,0,0.0,0.0,83,0.00,,,0.00,meteohub,2013-03-16 03:22:00,
2013-03-15 23:23:00,52.0,46.9,30.24,North,0,0.0,0.0,83,0.00,,,0.00,meteohub,2013-03-16 03:23:00,
2013-03-15 23:28:00,52.0,46.9,30.23,North,0,0.0,0.0,83,0.00,,,0.00,meteohub,2013-03-16 03:28:00,
2013-03-15 23:30:00,52.0,46.9,30.24,North,0,0.0,0.0,83,0.00,,,0.00,meteohub,2013-03-16 03:30:00,
2013-03-15 23:35:00,51.8,46.8,30.23,North,0,0.0,0.0,83,0.00,,,0.00,meteohub,2013-03-16 03:35:00,
2013-03-15 23:36:00,51.8,46.8,30.24,North,0,0.0,0.0,83,0.00,,,0.00,meteohub,2013-03-16 03:36:00,
2013-03-15 23:37:00,51.8,46.8,30.23,North,0,0.0,0.0,83,0.00,,,0.00,meteohub,2013-03-16 03:37:00,
2013-03-15 23:38:00,51.8,46.8,30.23,North,0,0.0,0.0,83,0.00,,,0.00,meteohub,2013-03-16 03:38:00,
2013-03-15 23:42:00,51.6,46.9,30.24,North,0,0.0,0.0,84,0.00,,,0.00,meteohub,2013-03-16 03:42:00,
2013-03-15 23:43:00,51.6,46.9,30.24,North,0,0.0,0.0,84,0.00,,,0.00,meteohub,2013-03-16 03:43:00,
2013-03-15 23:44:00,51.6,46.9,30.24,North,0,0.0,0.0,84,0.00,,,0.00,meteohub,2013-03-16 03:44:00,
2013-03-15 23:47:00,51.4,47.1,30.24,North,0,0.0,0.0,85,0.00,,,0.00,meteohub,2013-03-16 03:47:00,
2013-03-15 23:49:00,51.4,47.1,30.24,North,0,0.0,0.0,85,0.00,,,0.00,meteohub,2013-03-16 03:49:00,
2013-03-15 23:50:00,51.4,47.1,30.24,North,0,0.0,0.0,85,0.00,,,0.00,meteohub,2013-03-16 03:50:00,
2013-03-15 23:54:00,51.4,47.1,30.24,North,0,0.0,0.0,85,0.00,,,0.00,meteohub,2013-03-16 03:54:00,
2013-03-15 23:55:00,51.4,47.1,30.23,North,0,0.0,0.0,85,0.00,,,0.00,meteohub,2013-03-16 03:55:00,
2013-03-15 23:58:00,51.4,47.1,30.24,North,0,0.0,0.0,85,0.00,,,0.00,meteohub,2013-03-16 03:58:00,